GFSWCAN_sfc_rhum_084.txt.gz
RH
87 88 88 88 87 86 85 84 84 83 84 85 84 85 85 86 86 91 93 94 97 100 94 65 59 79 74 67 78 66 70 75 93 87 87 90 94 75 83 72 92 99 93 98 95 99 95 51 50 50 51 49 49 40
87 85 83 83 84 84 85 85 84 84 83 83 81 82 84 85 86 84 95 88 85 96 96 90 58 53 56 55 69 67 66 61 78 86 94 87 88 93 79 84 53 87 79 88 76 76 57 60 61 59 58 55 54 55
85 88 89 91 91 91 91 92 92 91 90 88 85 84 84 84 85 85 95 93 94 98 94 92 89 51 58 75 76 89 83 58 84 79 90 87 84 78 90 79 64 62 64 76 73 56 55 55 59 54 44 46 44 49
89 92 93 93 92 92 92 92 89 88 87 90 90 88 86 86 83 83 97 93 88 97 99 87 73 65 61 73 80 87 88 85 82 94 88 95 96 74 72 60 62 45 60 64 64 52 49 48 47 41 39 44 44 50
94 95 93 94 92 89 91 90 90 89 88 94 92 90 87 90 86 89 94 92 80 86 91 98 74 68 56 62 75 84 91 92 93 91 99 97 95 92 89 76 59 50 63 76 74 52 53 38 46 46 50 45 47 47
95 96 94 92 93 91 93 94 92 89 91 91 89 88 89 90 89 97 99 93 82 84 95 100 79 80 78 66 74 89 86 93 95 95 96 93 82 84 99 91 55 43 43 45 48 39 50 58 62 60 58 58 58 58
96 92 93 94 90 90 91 92 91 90 91 90 89 89 91 92 95 96 95 95 84 87 99 99 98 92 77 75 84 92 84 92 95 96 96 95 90 81 98 96 61 55 43 46 50 60 69 64 66 60 59 56 60 58
95 94 92 93 91 88 85 87 90 89 88 89 89 92 91 90 87 90 97 82 82 93 99 100 100 98 94 95 90 92 93 94 94 95 97 94 89 91 97 67 58 52 47 45 57 61 60 60 58 60 58 59 66 68
92 92 94 93 92 93 90 88 89 88 88 87 91 92 92 96 98 98 87 81 92 96 100 98 96 99 93 98 91 91 92 99 94 98 96 94 97 95 80 75 67 55 47 49 65 60 61 63 64 66 70 68 74 74
91 92 90 92 93 91 92 92 92 93 91 85 86 94 100 99 86 85 94 99 99 98 97 97 96 99 95 100 100 94 96 97 99 95 94 98 93 66 80 81 81 80 79 62 77 78 78 82 80 79 78 77 80 81
92 91 89 88 87 88 86 86 85 81 85 96 98 100 99 92 94 98 100 99 100 98 98 95 93 98 95 98 99 98 98 99 98 92 97 93 98 88 78 80 86 85 81 79 78 78 74 81 86 89 89 86 84 84
92 90 88 89 89 86 84 83 82 90 96 90 93 96 96 96 99 92 95 97 93 89 97 97 97 96 99 96 96 99 95 98 95 92 97 99 99 90 89 91 94 90 89 89 84 88 87 85 86 88 88 89 88 87
90 90 92 92 91 89 84 82 78 81 86 89 92 97 89 95 90 89 100 99 98 96 97 100 99 96 99 99 97 99 99 92 97 99 98 99 98 94 90 89 91 86 89 87 88 87 88 90 88 89 93 92 92 93
88 88 89 92 91 89 89 89 87 85 90 98 91 95 97 96 98 99 100 99 100 100 98 97 97 97 100 99 99 99 94 99 98 98 99 99 96 94 93 95 90 93 94 96 91 90 90 91 93 93 95 95 92 94
86 87 83 89 88 87 88 84 81 83 88 95 89 99 97 99 98 98 98 97 97 98 100 99 99 99 99 99 99 99 99 98 97 97 97 97 95 92 94 94 93 93 94 93 90 93 94 90 90 95 95 93 91 94
82 85 92 91 90 86 86 82 88 87 94 89 91 96 96 96 95 96 96 97 97 98 99 99 99 99 99 99 98 97 96 95 97 99 97 96 96 95 95 94 95 94 94 94 93 92 92 91 92 95 94 94 95 94
86 99 90 90 90 84 84 88 83 89 94 92 97 96 99 98 99 98 98 96 94 98 99 99 97 97 98 97 96 94 98 98 96 96 96 96 96 96 96 94 94 94 95 94 94 92 94 94 93 89 93 94 91 92
98 97 90 89 90 82 89 88 88 89 97 98 96 99 95 97 96 96 96 97 98 98 97 97 96 96 97 96 98 98 97 97 97 96 96 97 96 96 94 95 95 94 95 95 94 94 93 92 90 92 90 87 85 83
95 95 91 89 86 89 91 95 88 97 99 99 98 98 99 97 95 95 96 96 98 97 96 96 95 95 96 97 97 97 97 94 94 96 96 97 96 96 96 95 95 95 94 94 93 92 93 91 90 86 81 79 88 87
88 89 92 88 85 92 94 97 91 93 98 97 91 94 95 97 90 94 94 92 92 95 95 95 96 97 97 97 96 96 97 96 91 94 96 96 96 95 95 94 93 93 92 92 92 91 88 86 83 85 84 86 91 94
91 94 91 92 96 93 98 98 98 99 98 97 96 94 97 79 81 85 84 76 90 96 96 96 97 97 97 97 96 95 96 93 96 91 93 95 96 93 93 94 93 92 91 91 91 92 90 92 89 88 93 95 95 95
96 86 97 95 97 97 98 99 99 99 96 98 96 93 97 98 98 93 74 88 96 96 96 96 96 95 93 96 96 95 96 94 95 94 94 91 93 93 93 93 88 93 93 91 86 92 93 89 90 92 94 95 90 91
82 86 91 85 91 92 99 100 99 98 97 98 97 95 98 97 98 73 95 94 96 96 96 95 96 96 95 96 93 95 95 90 93 93 93 93 92 92 91 92 87 90 93 92 87 90 94 89 92 94 93 93 92 92
69 90 92 93 90 99 93 94 96 96 97 96 95 96 95 97 83 91 96 96 96 92 93 95 94 93 92 91 92 94 95 91 91 93 93 89 89 93 85 85 85 86 87 88 91 94 94 96 94 92 92 94 96 96
82 89 88 92 89 90 91 93 92 91 95 92 92 97 97 91 95 95 95 94 94 95 95 94 93 93 93 94 93 94 95 92 90 90 94 90 89 85 88 87 89 89 86 92 94 94 95 94 94 95 94 94 96 100
96 95 93 96 95 95 96 98 98 97 96 96 98 97 93 92 93 98 89 96 97 95 96 96 95 94 93 93 93 93 95 93 87 90 94 84 80 86 91 92 94 99 91 92 89 90 92 93 92 94 98 99 100 99
97 97 90 64 74 82 94 91 82 94 99 99 98 94 93 99 100 95 92 94 94 96 94 94 91 91 93 94 93 94 93 92 93 88 83 84 87 87 91 94 97 98 93 91 92 91 92 95 97 98 100 100 100 99
91 83 95 93 90 87 98 98 98 99 98 89 90 99 100 100 100 98 97 97 97 93 93 93 93 92 92 93 94 94 94 92 88 84 84 88 89 91 92 93 91 96 94 94 94 94 94 94 96 98 99 100 100 100
98 92 87 97 95 95 98 100 100 94 91 95 100 100 100 95 98 98 98 98 96 94 94 94 96 95 95 94 95 95 96 98 89 91 94 98 98 98 98 96 94 96 96 95 96 97 91 96 96 97 100 99 100 100
93 94 93 100 99 100 99 99 99 99 97 99 93 84 90 97 96 95 94 94 95 96 96 96 96 96 97 96 96 96 95 96 95 92 95 99 100 100 99 98 99 99 99 96 99 100 100 100 100 98 95 99 100 100
95 93 95 99 100 98 98 100 95 89 94 94 98 97 99 99 98 95 95 96 96 96 95 96 96 96 96 95 95 95 99 97 95 94 94 96 97 97 98 99 99 98 97 96 98 100 100 100 100 100 99 100 100 100
97 99 96 100 100 98 98 98 100 100 100 100 98 100 99 98 100 98 96 98 96 96 96 96 95 97 97 96 96 96 94 98 98 97 96 98 100 100 100 99 99 98 100 100 100 100 99 100 100 100 100 100 100 100
96 98 100 100 100 100 99 97 99 99 99 100 100 100 100 99 100 98 97 96 97 96 96 97 97 97 95 95 95 96 96 98 96 100 100 100 97 100 99 100 99 100 98 100 100 99 100 99 100 100 100 100 100 100

GFSWCAN_sfc_rhum_087.txt.gz
RH
89 86 87 88 88 88 88 88 87 86 86 86 87 87 87 87 90 96 95 93 97 97 91 66 64 76 74 70 86 70 73 78 92 93 94 87 95 77 72 69 88 94 99 99 99 99 94 52 63 64 59 64 51 43
87 88 88 85 83 84 84 83 84 84 84 85 85 85 86 86 85 91 99 94 94 98 96 87 84 72 57 52 66 69 66 68 81 88 93 88 91 94 77 80 70 91 74 90 82 81 63 56 58 57 57 56 55 55
89 87 85 86 87 89 89 89 88 86 84 84 83 83 85 86 85 87 96 95 98 100 99 96 85 69 66 63 66 77 84 57 73 74 90 88 79 77 84 84 66 64 64 85 80 58 60 56 57 65 59 49 44 50
86 86 89 91 92 92 91 90 90 91 90 88 87 84 84 86 85 86 97 95 88 98 99 89 61 64 63 67 77 73 66 83 85 94 92 92 92 76 79 65 71 56 71 72 70 58 54 44 51 55 50 48 49 46
91 93 94 94 95 93 92 92 91 92 90 91 90 88 88 84 84 88 94 96 74 79 95 91 85 66 51 62 71 79 75 84 93 89 98 91 93 87 91 90 82 53 55 75 64 48 53 49 41 51 55 52 50 47
95 96 95 91 91 84 91 92 91 89 89 94 91 90 89 86 83 97 100 97 79 92 93 99 86 84 81 74 77 81 85 83 95 95 96 95 86 89 99 91 62 46 47 53 55 49 55 59 61 60 60 71 65 60
97 94 94 89 88 90 92 94 91 91 90 90 85 87 90 89 95 97 96 96 85 92 94 98 99 90 78 77 80 94 91 94 93 98 98 92 88 84 99 99 63 58 54 51 58 65 70 63 65 66 65 65 68 66
95 95 94 87 86 89 88 90 93 92 91 89 88 92 90 91 88 95 98 85 79 92 97 99 98 98 91 97 98 93 97 99 99 97 98 92 90 92 96 76 58 50 52 53 56 56 63 70 70 71 63 64 70 71
94 94 94 90 90 90 90 91 91 90 90 92 90 89 95 96 98 98 87 79 95 93 98 99 99 99 97 98 96 97 94 100 96 98 98 94 96 98 78 73 89 90 87 82 60 72 74 79 78 71 68 71 77 79
92 93 94 94 93 91 89 90 92 93 92 88 89 97 100 98 88 88 97 99 97 99 100 99 100 99 96 100 100 98 97 98 99 96 95 100 96 81 83 91 88 85 82 84 81 85 84 83 81 79 79 78 79 81
93 93 93 90 90 89 86 84 84 85 85 96 99 100 96 82 95 99 99 99 99 100 100 98 96 99 95 98 99 98 99 98 98 91 95 89 88 89 93 96 90 87 82 84 84 81 74 80 86 87 86 83 82 82
93 92 89 91 90 81 80 85 83 91 97 94 94 96 95 96 99 98 98 99 95 94 98 97 97 98 99 95 98 99 97 97 93 90 98 90 96 93 92 94 92 90 88 86 84 86 84 83 83 84 85 87 88 86
90 90 89 84 85 88 89 87 87 89 88 83 87 96 99 99 98 94 95 99 99 98 100 97 98 93 96 95 97 95 97 97 96 100 95 96 98 94 93 92 93 89 89 89 89 86 86 87 85 87 91 90 90 92
87 87 88 92 90 89 87 84 89 81 89 94 91 98 93 95 96 96 96 99 99 99 99 96 99 94 99 98 95 95 93 98 98 93 93 99 95 96 94 92 91 94 93 95 91 89 90 90 93 93 94 90 90 94
84 84 83 90 92 86 80 81 78 79 86 94 88 99 97 98 97 98 97 96 95 97 100 99 99 96 99 99 97 96 98 96 94 93 97 97 95 93 94 94 92 93 94 95 95 96 96 96 94 94 94 93 90 92
83 82 87 92 91 84 86 78 86 86 92 89 90 95 96 97 96 96 96 97 97 97 99 99 99 99 99 98 98 96 97 97 97 96 97 96 96 96 96 95 95 93 94 96 96 95 95 94 93 95 94 94 94 93
84 95 88 91 88 79 79 83 84 90 93 91 97 96 97 98 98 98 98 96 95 98 99 99 97 96 98 96 95 94 97 98 98 97 96 96 96 96 96 96 96 94 95 95 95 94 94 94 92 87 93 94 92 92
98 97 91 88 85 79 88 85 90 88 96 96 96 98 96 98 96 98 96 95 97 98 94 97 95 95 96 95 96 97 97 97 97 96 96 96 96 96 95 96 96 95 95 95 94 94 93 92 90 92 90 90 90 90
95 94 90 87 82 88 93 96 86 96 99 99 98 97 98 98 94 96 96 96 98 97 96 96 95 96 96 97 97 97 97 96 95 96 96 96 96 96 96 96 95 95 94 94 93 92 93 91 91 90 90 87 88 86
89 86 89 86 80 91 94 97 90 92 99 96 96 90 96 96 92 96 95 95 93 95 95 95 96 96 97 98 97 96 96 96 91 94 95 96 96 95 95 94 94 94 92 93 93 92 90 91 91 87 84 85 90 93
89 90 89 91 96 93 98 99 94 97 96 97 93 92 97 85 85 90 93 82 90 96 96 96 96 97 96 96 96 94 96 93 95 90 93 95 96 93 94 94 93 92 91 92 92 94 92 92 89 88 93 95 95 95
94 85 94 90 96 95 96 99 95 98 96 97 97 92 97 97 97 92 74 90 96 96 96 96 96 96 94 95 96 96 96 94 95 94 94 93 94 94 94 94 91 94 94 94 92 93 93 90 90 92 94 96 93 94
79 82 89 82 88 91 99 100 97 98 97 98 96 94 97 99 95 65 95 94 96 95 96 95 96 96 95 96 94 95 96 92 93 94 94 94 93 94 92 93 93 94 93 92 85 90 95 90 91 93 92 94 95 96
65 88 92 92 90 98 94 96 95 94 96 96 96 96 95 96 78 90 96 96 96 92 92 95 93 94 92 91 92 93 95 92 92 93 94 91 91 93 91 91 89 88 87 88 92 94 94 96 92 92 90 91 92 95
82 93 89 90 88 89 94 94 91 91 98 94 93 97 97 88 95 95 95 94 94 95 95 94 92 93 93 94 93 94 95 93 92 91 94 92 92 88 89 88 89 89 87 93 96 95 97 95 94 94 93 91 94 99
96 95 91 94 94 92 92 98 99 99 97 96 98 95 92 92 93 99 90 97 97 95 96 96 96 94 93 94 93 93 95 94 89 90 93 91 85 87 91 92 93 96 90 92 93 95 96 96 95 96 99 100 100 100
96 97 84 62 75 77 93 91 81 92 98 100 99 96 93 100 100 95 92 93 93 96 94 94 92 92 94 94 93 94 93 92 93 92 86 86 88 88 91 94 97 100 92 90 92 91 94 98 99 99 100 100 100 98
90 82 92 95 93 87 98 98 98 99 98 88 86 100 99 100 98 96 97 97 96 92 92 93 93 92 93 94 94 94 94 94 91 83 80 84 88 92 94 96 95 99 96 95 93 93 94 95 97 98 99 100 100 100
98 93 88 99 97 97 98 100 100 94 92 95 100 100 100 96 98 99 98 96 95 93 94 95 96 96 95 95 95 95 96 95 88 89 95 100 98 97 96 96 96 97 97 96 99 98 92 96 99 96 98 100 100 100
90 95 97 100 99 100 100 100 100 99 95 99 94 84 92 96 96 95 95 95 96 97 97 96 97 96 97 96 96 96 96 97 95 92 96 98 100 99 99 98 97 99 98 97 100 98 99 100 100 100 100 100 100 100
95 95 97 99 100 99 99 100 96 89 96 96 100 99 99 99 98 96 96 97 97 97 96 96 96 96 96 96 97 97 99 97 96 95 94 97 98 99 100 100 100 98 96 98 100 100 100 100 100 100 100 100 100 100
98 100 97 100 100 98 98 100 98 98 100 100 100 100 99 98 100 99 97 98 97 97 97 97 97 99 99 97 97 97 95 98 97 97 96 98 100 100 97 99 99 96 97 99 100 100 100 100 100 100 100 100 100 100
99 100 100 100 99 100 99 97 98 99 100 100 100 100 100 98 100 98 98 97 98 98 98 99 99 98 97 95 96 98 99 99 99 100 99 100 99 100 99 100 100 100 98 100 100 100 100 100 100 100 100 100 100 100

GFSWCAN_sfc_rhum_090.txt.gz
RH
86 87 88 89 89 88 88 90 91 91 87 84 87 86 87 87 87 95 96 94 97 100 96 71 65 70 69 68 84 72 81 89 95 98 98 94 94 79 73 57 69 93 98 99 99 98 93 58 76 95 66 71 60 56
90 89 87 87 86 87 88 86 84 85 87 87 87 87 86 88 90 92 98 94 94 99 98 84 70 54 53 52 61 68 78 76 85 90 94 90 94 95 77 86 63 86 86 88 91 85 63 57 52 55 66 67 66 58
85 85 86 87 88 87 85 85 85 85 86 86 86 87 87 85 84 91 97 96 98 100 99 98 89 68 73 68 56 76 84 68 84 82 97 94 88 81 88 86 72 64 65 80 82 58 58 57 56 58 57 60 66 53
88 90 89 88 88 88 89 89 90 89 88 87 86 84 85 86 86 85 98 96 95 99 100 95 80 79 65 71 72 78 68 78 79 86 92 99 96 77 82 64 77 67 70 71 75 59 53 49 50 49 55 58 59 61
90 90 91 93 94 94 93 92 94 93 92 91 90 87 84 85 85 88 94 96 84 88 97 89 82 69 55 69 72 68 74 82 92 96 100 99 94 94 91 91 88 63 59 76 74 56 61 56 54 57 62 64 72 65
94 94 95 94 92 92 92 90 89 91 92 91 91 89 88 84 85 95 100 98 81 77 97 98 85 86 71 62 70 73 70 80 95 98 99 95 80 89 99 96 63 47 49 52 52 62 63 58 69 72 75 73 70 67
94 94 93 91 87 90 90 92 91 91 90 90 91 89 90 88 94 98 95 95 87 88 99 98 91 92 82 77 80 86 79 84 87 96 98 89 94 90 99 88 74 60 63 62 58 62 56 63 79 74 74 70 71 73
96 93 86 83 86 89 89 92 93 92 90 89 91 90 91 91 90 96 97 86 79 96 96 98 96 99 90 94 91 96 95 90 96 98 98 98 90 95 97 82 65 54 51 53 56 58 57 75 75 70 68 71 78 81
95 96 93 92 90 91 90 92 93 91 87 90 91 92 96 97 99 97 87 80 94 95 98 98 98 99 96 97 97 98 97 99 99 99 99 98 99 98 82 70 70 62 75 67 77 74 79 82 77 73 73 73 82 83
93 93 93 93 94 91 89 92 86 92 92 91 90 98 100 99 90 88 97 99 98 98 99 99 98 99 100 100 100 100 99 99 99 98 97 99 93 82 71 69 69 87 82 79 92 89 88 88 85 82 82 79 82 84
93 90 89 87 88 92 93 89 89 88 88 98 99 99 97 81 95 98 99 98 99 99 98 96 96 99 99 99 99 99 99 98 97 91 95 92 87 88 90 96 95 90 84 82 82 86 83 82 86 87 87 84 82 82
91 89 88 92 95 93 86 83 83 92 96 94 91 91 95 96 99 92 99 99 96 94 98 99 98 98 100 98 100 99 98 94 95 93 97 80 90 94 93 95 93 90 90 87 83 85 84 82 82 83 84 86 87 87
91 90 93 95 93 88 91 90 85 81 81 84 90 97 96 98 96 97 100 99 97 98 99 99 99 100 100 98 98 96 95 91 95 99 84 90 95 95 93 91 92 88 88 87 87 86 86 86 84 85 90 89 90 92
88 88 89 92 89 85 80 81 79 80 86 93 92 94 94 95 98 95 97 98 98 99 97 96 96 96 96 96 95 95 95 99 99 98 94 98 96 96 94 91 89 94 93 95 92 89 90 90 93 93 92 90 90 93
82 85 85 92 90 82 79 82 80 80 87 94 88 98 97 98 97 97 98 97 96 98 99 99 98 93 98 98 96 94 99 95 92 90 98 96 95 94 94 92 93 93 95 96 95 94 93 91 92 94 95 95 94 94
80 79 89 93 89 83 77 76 84 84 91 88 90 96 96 97 97 97 97 97 96 96 99 97 97 98 100 98 99 96 96 96 98 99 99 95 95 95 96 94 95 96 96 96 96 95 94 94 94 95 95 95 95 94
82 94 88 91 84 77 75 81 84 89 93 90 97 96 97 97 98 98 98 96 96 98 99 98 96 97 97 97 95 94 98 98 99 99 98 97 96 96 96 96 96 95 95 96 95 94 95 95 93 89 93 95 92 92
97 96 90 85 80 78 88 87 88 87 94 95 95 98 97 98 97 98 96 96 97 98 95 96 94 94 97 96 97 98 98 97 96 96 96 96 96 96 96 96 96 95 95 95 95 94 93 92 91 92 91 90 90 91
95 93 89 84 81 89 91 95 85 94 97 97 97 96 98 98 94 96 96 96 97 95 94 96 95 96 96 97 97 97 97 96 95 96 96 96 97 96 96 96 95 95 95 95 93 92 93 91 90 89 90 86 90 89
86 84 89 83 76 92 93 96 88 85 96 94 96 93 97 97 96 97 94 94 90 94 94 95 96 96 97 97 97 97 98 96 90 94 96 96 96 95 96 94 94 94 92 93 93 92 90 91 91 90 89 85 90 92
84 88 87 90 95 92 96 96 92 94 96 93 90 95 98 87 93 95 95 84 89 96 96 96 96 96 97 96 96 95 96 94 96 91 94 95 96 94 94 94 93 92 92 92 92 94 93 92 92 87 92 95 94 94
92 80 94 89 95 92 91 95 89 97 97 96 96 91 97 97 97 96 78 91 96 96 96 96 96 95 94 95 96 96 96 95 95 94 94 93 94 94 94 94 91 94 94 95 91 94 93 90 90 92 93 96 91 92
71 79 87 81 88 90 99 99 97 98 97 97 96 93 96 97 93 64 95 94 96 95 95 95 96 96 95 96 94 95 96 94 93 94 94 94 94 94 93 94 93 93 93 94 86 90 95 90 92 95 94 94 94 95
63 88 91 93 89 98 94 97 94 94 94 96 96 96 94 96 80 90 95 96 96 93 92 95 94 94 92 91 92 93 95 94 92 93 94 92 91 93 92 92 92 92 88 87 90 93 93 94 92 93 93 94 94 96
81 92 88 91 88 89 93 93 90 88 96 94 92 96 96 84 95 94 95 94 94 95 95 94 93 93 93 94 93 94 95 93 92 91 94 93 93 92 91 88 90 89 85 92 94 94 95 92 92 92 93 93 95 98
97 94 91 95 94 91 92 98 99 98 96 96 98 95 93 92 93 98 90 96 96 95 96 96 96 94 93 93 93 93 95 94 92 91 93 92 92 90 91 92 93 96 90 91 92 94 94 93 91 91 94 96 98 100
95 95 81 62 73 72 93 90 80 92 98 100 98 95 92 99 100 96 92 92 93 96 94 94 92 93 94 94 93 94 93 93 93 92 86 87 88 89 91 92 95 97 91 91 91 89 93 95 95 97 100 100 100 100
90 83 93 97 94 85 98 98 98 100 99 89 86 99 99 100 98 96 96 96 96 93 93 93 93 92 93 94 95 95 95 95 95 87 80 83 88 93 94 95 94 98 94 94 94 93 93 93 97 98 99 100 100 100
99 94 88 99 96 97 98 100 99 93 92 95 100 100 100 96 98 98 97 97 96 94 95 95 96 96 95 94 95 95 94 94 88 87 90 95 95 96 96 96 97 96 95 94 97 98 92 97 98 97 100 100 100 100
93 95 97 100 99 100 100 99 99 99 94 99 95 85 94 97 96 95 95 95 96 97 98 97 97 97 97 97 97 96 96 97 95 93 93 96 97 98 98 97 98 99 98 96 98 100 100 100 100 100 100 100 100 100
96 96 98 99 100 97 98 99 100 96 98 99 100 98 100 100 98 97 96 97 98 97 96 97 97 97 98 97 98 96 98 97 96 95 95 97 98 98 99 100 100 98 98 97 99 100 100 100 100 100 100 100 100 100
99 100 97 100 100 98 100 100 100 100 100 100 100 100 99 98 100 98 96 99 96 97 98 97 97 100 100 99 97 97 96 98 97 98 96 97 98 99 99 98 97 96 98 99 100 100 100 100 100 100 100 100 100 100
99 100 100 100 100 100 100 97 99 100 100 100 100 100 100 99 100 99 98 97 99 99 100 100 100 99 96 97 99 100 99 99 99 100 100 100 98 100 99 100 100 98 97 100 100 100 100 100 100 100 100 100 100 100

GFSWCAN_sfc_rhum_093.txt.gz
RH
78 82 84 84 86 87 86 85 84 85 85 87 87 85 86 85 83 90 95 92 94 98 95 79 64 69 69 71 85 75 82 94 99 99 96 87 86 63 58 47 48 82 95 90 82 97 88 58 69 71 86 79 60 60
82 84 86 88 88 88 87 86 85 86 88 91 91 89 89 88 88 88 98 94 94 98 98 84 71 56 51 52 62 69 79 78 91 86 86 78 85 83 64 63 50 64 62 81 96 84 80 62 56 55 62 66 60 69
84 85 85 86 85 85 85 86 87 87 88 85 83 83 88 88 88 92 97 96 98 99 99 99 91 73 66 57 52 73 69 61 88 78 98 93 91 69 84 70 58 51 54 72 70 57 58 55 50 53 52 59 54 61
84 85 87 88 88 89 90 89 86 85 86 86 85 86 86 84 88 90 98 96 96 99 99 98 81 82 62 66 63 67 62 70 66 82 99 100 93 92 74 55 58 44 57 63 64 51 58 51 49 48 55 53 57 55
90 91 92 92 92 92 91 91 91 90 88 87 87 87 87 87 84 91 98 95 93 86 98 96 79 74 67 70 74 73 75 72 84 94 100 97 93 94 86 83 75 51 50 62 64 47 57 53 52 54 67 69 66 64
94 96 95 95 94 95 95 94 93 93 90 92 90 88 87 85 84 96 100 98 93 96 99 98 77 80 76 71 74 73 76 83 89 98 100 92 76 83 96 87 59 49 47 46 48 40 56 57 54 63 70 69 66 68
96 97 94 91 88 88 90 91 91 91 91 92 91 90 91 86 92 98 97 95 86 92 99 98 86 78 77 73 79 84 78 84 92 99 100 92 87 87 96 86 53 54 54 53 53 56 60 46 47 67 69 68 68 65
95 92 82 85 89 90 90 89 91 92 90 87 90 92 90 90 87 95 96 87 77 96 97 98 92 90 83 94 92 89 91 87 92 97 98 99 89 90 95 66 56 50 49 52 52 51 51 50 70 67 67 70 79 82
94 94 93 86 85 89 91 91 92 92 88 89 90 92 96 98 100 98 90 85 94 93 98 97 93 97 97 97 90 94 90 99 96 99 98 96 95 95 79 69 59 59 61 55 64 70 69 73 70 69 69 75 82 86
93 90 90 91 88 91 94 91 92 91 89 88 95 99 100 99 90 90 99 100 99 98 98 97 92 98 98 97 96 100 99 98 99 93 94 99 81 63 66 65 63 64 62 72 77 76 82 82 77 76 76 77 80 82
91 96 94 92 89 88 89 91 92 89 84 98 100 99 97 82 95 99 100 98 99 99 97 89 92 98 98 99 98 100 100 97 100 93 94 92 87 79 86 84 88 83 79 79 78 78 74 80 77 79 81 80 78 78
94 93 92 92 91 90 93 91 92 93 96 92 93 94 96 96 98 96 95 96 86 88 92 96 97 95 100 99 100 99 96 99 94 91 98 86 81 89 87 90 91 86 83 80 77 78 76 76 74 76 80 82 83 83
94 92 92 88 82 80 80 80 78 75 76 80 85 93 91 95 98 90 94 96 97 96 99 100 100 95 100 100 99 99 96 97 92 98 87 83 89 92 90 87 89 86 86 83 82 78 79 81 78 81 88 87 89 91
90 90 87 90 84 82 76 78 78 77 83 88 88 95 92 95 97 97 95 97 97 98 99 99 98 98 100 98 98 97 91 95 97 96 92 95 92 93 92 92 87 91 93 94 88 86 88 89 93 93 93 91 90 92
85 91 87 90 86 81 80 79 69 77 84 92 87 99 98 96 97 95 95 95 94 97 100 99 97 93 98 98 93 91 98 94 91 90 94 92 91 91 92 92 92 92 95 95 95 94 94 93 92 95 94 92 90 92
77 84 90 91 86 78 74 74 82 80 89 86 89 94 94 95 96 97 96 96 96 96 98 99 96 96 94 95 90 93 92 92 94 91 92 91 92 93 93 94 94 95 95 96 96 95 95 95 94 95 94 94 94 93
81 93 88 90 82 72 72 80 82 87 91 90 98 96 95 96 97 97 97 94 94 97 98 95 93 97 89 93 92 90 94 93 91 91 91 93 92 94 94 94 95 94 95 95 95 95 95 95 94 93 94 95 93 93
97 96 87 81 78 77 85 85 86 82 91 93 94 96 94 95 96 96 96 95 97 95 88 94 88 91 95 93 93 94 92 94 93 93 93 93 94 94 94 94 96 94 95 95 95 94 93 94 93 93 92 92 91 90
94 93 84 78 78 86 87 91 81 91 94 94 93 92 94 96 93 95 95 96 96 95 92 93 93 93 94 93 95 95 95 93 92 93 94 96 95 96 96 96 95 95 95 95 94 92 93 93 92 90 90 82 87 90
81 82 85 80 75 89 92 94 82 79 92 92 91 93 93 96 95 96 93 91 78 88 92 94 94 95 95 96 96 94 94 92 88 92 93 94 95 95 96 94 94 94 92 93 93 92 90 91 91 89 90 90 90 88
80 85 83 88 92 90 94 89 91 87 90 90 88 90 96 90 93 95 94 79 87 95 93 94 96 96 96 96 96 93 94 88 93 87 89 92 95 92 93 94 92 91 90 91 92 93 92 91 90 90 92 94 93 92
89 75 92 87 95 88 89 95 87 95 93 93 94 84 95 96 96 96 81 91 95 95 96 96 95 95 93 94 95 94 96 94 94 91 93 89 91 91 92 94 90 94 93 94 91 93 93 88 88 89 93 95 88 88
70 78 87 81 87 90 99 99 96 97 96 97 93 91 94 94 93 64 94 93 95 95 95 94 96 96 94 96 93 94 95 92 91 92 93 93 92 93 91 92 92 93 93 92 88 89 93 87 90 93 91 90 91 92
63 88 92 93 89 98 91 96 88 92 92 95 92 95 93 94 78 86 93 94 95 92 92 95 93 92 90 89 91 92 94 92 91 92 93 90 90 92 90 92 91 92 87 82 85 91 90 93 89 89 89 90 89 90
78 92 88 91 86 88 92 93 90 86 96 92 90 95 94 87 92 91 93 91 93 94 94 94 91 92 92 92 92 92 94 91 91 89 93 91 91 91 91 89 88 83 80 91 93 93 94 92 90 90 88 88 89 92
97 92 90 95 93 91 91 96 98 97 93 94 96 90 87 90 90 94 87 93 94 92 96 96 94 92 91 91 91 90 92 92 89 90 92 90 91 89 89 89 88 91 83 86 90 91 91 89 90 90 92 91 91 92
96 97 83 64 73 72 92 87 78 90 97 99 96 92 88 98 98 92 87 88 88 91 91 90 89 90 92 92 91 92 92 92 92 90 83 82 84 85 87 90 92 92 83 84 84 83 86 86 88 88 93 92 90 88
89 82 95 97 92 83 98 98 98 99 96 85 81 99 99 99 94 91 92 92 92 89 89 89 89 89 90 91 93 93 94 94 94 89 80 83 87 91 91 91 90 91 89 88 88 87 84 85 88 90 90 93 97 98
99 92 86 99 95 97 98 99 99 91 89 94 99 100 98 92 95 94 93 93 93 92 92 93 94 94 92 92 94 93 92 92 89 90 91 93 92 95 93 92 91 92 91 92 95 93 87 91 92 91 92 94 96 96
98 93 96 98 99 100 100 98 99 98 91 95 91 82 89 95 95 93 93 93 94 97 96 96 96 95 96 94 95 94 95 95 94 85 85 89 94 95 94 94 94 94 93 94 97 97 98 98 97 96 97 99 98 97
94 95 97 98 100 98 98 99 100 98 98 98 99 98 99 99 97 95 95 96 96 96 95 96 96 97 96 96 95 92 98 97 95 93 92 94 94 95 95 96 96 94 93 93 93 94 95 97 96 97 97 99 100 98
99 100 97 100 100 98 99 99 100 100 100 100 99 100 98 97 100 97 96 97 95 96 97 95 96 100 97 96 97 97 97 98 97 96 94 95 96 96 93 91 93 93 94 94 95 95 95 94 98 97 97 98 98 98
99 100 100 100 100 100 99 96 98 100 100 100 100 100 100 98 100 98 95 97 97 96 98 99 98 97 97 97 97 97 96 98 99 100 100 100 99 99 96 95 92 92 94 99 100 98 100 100 100 100 100 100 100 99

GFSWCAN_sfc_rhum_096.txt.gz
RH
70 73 76 76 79 82 80 78 76 77 82 83 83 83 82 81 80 88 85 84 86 93 72 51 50 67 91 83 89 89 80 71 95 100 90 70 71 46 45 36 58 74 91 91 83 93 78 41 68 93 83 61 51 59
77 78 80 81 82 83 85 86 86 87 86 84 84 84 85 84 83 84 94 83 86 91 80 62 55 53 52 43 63 69 64 72 81 78 76 63 70 65 47 54 28 47 38 48 62 65 42 41 66 66 62 57 45 69
81 83 83 83 84 84 85 85 84 83 85 88 89 88 87 87 86 88 97 95 95 99 100 90 79 71 56 52 48 76 61 51 63 67 93 82 79 49 70 52 43 31 31 48 55 36 50 60 68 63 47 41 54 52
82 82 84 86 87 87 86 84 84 85 86 84 84 84 90 90 90 90 98 96 97 99 99 86 64 66 52 55 50 52 53 48 55 72 99 98 86 65 56 50 51 35 34 38 40 35 34 34 38 36 33 46 55 59
82 85 89 91 91 92 92 89 88 86 87 87 88 86 82 80 87 93 96 96 93 79 97 72 65 62 55 56 60 55 60 66 80 93 100 93 65 65 60 60 57 38 39 43 46 34 36 35 31 34 37 44 53 64
90 92 94 95 93 92 94 92 91 89 89 88 87 87 85 82 88 98 100 97 90 88 99 87 54 62 66 64 65 60 61 70 83 99 99 97 67 72 81 59 37 33 32 33 38 32 35 37 36 36 45 51 59 60
92 95 93 90 89 91 92 94 95 94 92 90 89 88 87 86 93 98 95 87 91 94 99 98 71 63 59 68 67 68 66 85 94 99 100 94 62 72 78 75 40 34 32 31 30 32 40 36 37 39 49 54 59 59
95 91 86 87 86 86 89 90 89 88 89 92 90 90 87 86 93 96 85 88 82 96 96 100 81 78 63 72 76 67 78 80 96 99 98 98 84 97 97 50 42 36 34 34 34 33 36 36 36 45 51 60 64 69
94 89 90 91 92 92 94 91 90 88 86 89 89 92 96 98 99 97 88 86 91 84 99 100 91 90 79 67 60 72 66 88 70 94 87 75 77 78 47 40 37 37 40 39 35 40 39 42 50 54 60 64 71 78
94 93 90 89 90 88 93 91 91 89 88 88 96 100 100 98 88 92 98 99 98 94 93 92 68 96 80 95 98 97 86 76 91 73 64 99 70 44 38 38 40 50 50 49 51 51 41 56 62 62 61 63 69 74
91 91 91 93 88 89 92 90 91 89 85 97 100 100 97 81 87 97 100 100 100 100 97 69 67 84 85 96 97 87 99 88 86 67 79 66 59 48 39 44 58 66 63 61 60 60 57 62 64 63 68 70 72 74
93 87 90 95 87 93 93 89 85 87 95 93 94 90 88 95 100 100 99 96 82 70 84 88 77 66 91 88 97 99 97 100 97 81 92 65 78 76 72 74 75 76 75 72 63 63 63 62 60 62 66 72 76 79
92 81 84 90 92 89 81 79 77 78 70 63 78 99 90 98 100 90 89 87 90 81 92 99 99 92 98 93 100 100 100 95 77 99 75 80 86 82 82 80 78 77 84 79 76 67 66 67 67 71 82 81 87 89
86 85 87 88 88 90 90 84 80 75 75 82 98 91 92 95 89 85 81 83 94 96 99 88 98 94 97 100 100 99 98 92 98 93 83 89 82 79 78 82 77 81 89 92 86 83 84 85 88 89 92 91 90 93
87 87 85 86 82 77 76 69 63 54 65 85 79 93 89 87 86 90 92 89 89 92 100 100 99 100 100 100 98 95 99 95 82 88 88 83 80 80 81 83 86 88 91 92 93 94 94 92 91 93 94 94 91 94
79 78 80 90 76 72 71 63 58 56 71 75 80 85 88 88 93 92 93 95 88 91 96 100 100 97 98 99 96 94 92 83 91 85 82 77 82 86 87 87 90 90 90 92 94 93 94 94 93 94 94 94 94 93
77 78 87 88 76 66 70 62 61 74 78 80 89 86 86 89 92 92 91 89 87 95 100 99 99 96 86 91 86 80 89 88 85 82 81 87 88 88 87 88 91 91 91 90 90 89 93 94 92 91 94 94 93 93
81 78 85 79 75 68 66 66 68 69 84 82 85 91 87 89 91 91 90 89 94 90 86 91 75 86 88 82 85 86 82 83 83 84 82 86 88 86 86 88 89 89 90 92 92 91 90 93 90 90 91 90 91 92
84 79 81 76 68 68 70 74 60 78 84 80 83 82 83 87 87 89 91 90 92 89 81 88 90 87 89 86 91 90 88 86 85 90 91 92 93 93 92 90 91 90 90 91 91 86 89 90 89 89 89 87 89 89
79 80 81 76 70 71 81 76 56 65 78 80 76 83 81 90 90 92 92 89 86 88 90 90 90 92 92 90 92 92 89 86 79 84 88 90 91 93 93 89 89 90 88 91 91 91 90 88 88 88 90 89 91 92
75 74 77 74 73 71 81 77 77 70 74 75 78 70 88 80 89 90 89 69 80 90 89 90 92 92 93 93 92 89 89 81 86 83 85 88 90 85 88 89 89 87 87 87 88 92 92 90 88 89 94 95 91 87
72 70 74 73 86 84 79 73 76 77 75 80 82 78 90 92 92 93 76 87 90 91 91 92 91 91 90 91 88 88 89 88 89 84 89 86 87 86 87 88 84 90 89 92 87 91 90 86 88 86 87 89 79 80
60 62 71 72 85 88 100 94 86 88 84 88 78 81 88 90 89 69 90 88 89 89 90 90 92 93 92 92 87 89 91 85 83 85 86 87 86 88 86 89 89 90 89 88 86 88 89 80 82 86 83 82 84 84
53 79 84 84 79 94 78 86 73 76 80 81 76 82 82 86 70 75 87 88 89 85 82 88 82 84 83 81 80 84 88 85 84 85 88 86 85 88 86 87 87 87 85 82 79 82 81 86 80 80 81 81 80 81
79 88 80 83 74 78 84 85 84 77 88 83 80 85 87 77 83 81 82 82 86 89 88 85 81 82 82 85 83 84 90 88 88 84 90 88 87 87 87 86 82 76 76 86 88 87 88 85 84 82 79 79 78 80
93 85 83 86 84 82 82 88 89 89 84 86 88 75 75 78 79 86 75 85 88 85 91 91 90 84 83 83 84 85 88 87 86 86 88 87 89 90 87 83 84 87 75 81 84 86 86 84 83 81 83 80 78 80
89 89 72 55 62 64 82 78 69 79 86 90 84 80 77 85 86 78 70 75 77 84 82 83 81 82 85 86 85 87 87 87 89 86 79 74 77 77 80 83 86 84 74 78 80 80 83 83 82 82 84 82 80 78
76 72 90 89 81 71 87 84 86 88 85 73 70 88 85 82 82 78 78 79 82 78 80 81 81 81 82 85 87 88 89 90 91 84 73 75 77 82 85 85 84 85 82 80 80 78 78 79 80 80 79 84 88 80
89 78 72 92 84 83 88 88 87 78 75 73 84 82 82 77 86 83 81 82 82 82 84 85 88 87 87 86 89 89 90 91 90 91 91 91 85 90 84 85 85 84 83 83 80 78 76 79 79 81 80 84 86 84
87 78 82 86 89 90 91 86 89 90 73 75 68 68 72 83 89 84 84 84 86 91 91 91 91 89 91 90 91 91 90 89 90 85 84 88 91 89 87 86 86 86 84 84 86 88 90 91 92 89 89 89 87 87
79 78 81 80 86 86 86 91 84 80 79 82 80 82 84 87 87 86 87 88 88 89 89 90 90 89 89 90 89 87 92 91 88 85 82 86 87 88 89 89 87 85 84 84 84 85 87 85 84 84 83 84 85 83
86 86 84 87 88 87 90 86 89 88 90 85 90 89 90 86 90 87 90 88 88 89 90 85 86 92 88 88 89 90 86 89 88 88 86 88 90 88 86 85 87 85 84 84 84 84 81 82 84 82 84 82 83 81
89 85 86 87 90 90 91 87 85 88 89 89 92 92 92 88 92 88 84 88 88 87 88 89 89 89 89 88 87 88 84 90 91 93 92 95 94 91 88 86 84 85 85 87 87 86 85 84 85 83 83 83 85 84

GFSWCAN_sfc_rhum_099.txt.gz
RH
67 72 72 74 75 75 74 72 78 80 81 81 80 81 81 80 80 82 68 67 85 86 61 45 42 70 79 84 82 78 89 78 98 100 84 64 81 50 47 38 76 82 93 85 69 95 82 26 33 58 72 64 57 44
70 73 75 77 78 78 79 82 84 83 84 82 81 82 82 82 81 82 82 68 78 83 63 51 43 38 40 47 72 65 70 61 97 91 70 82 81 66 50 63 29 72 47 62 60 54 33 30 50 56 65 73 61 51
76 77 78 79 80 82 83 84 84 82 82 86 83 82 84 83 82 84 84 77 90 95 91 71 59 46 48 46 46 69 55 51 60 80 95 95 96 55 74 49 43 38 28 39 41 33 32 33 43 43 61 60 55 42
78 78 78 80 82 84 86 87 86 85 85 84 86 87 85 84 84 85 95 88 87 99 97 65 53 58 40 45 53 53 53 54 65 74 99 97 83 49 58 56 49 38 43 46 40 32 30 28 32 48 54 37 33 43
78 79 82 83 86 88 89 90 89 86 84 84 85 84 88 87 85 90 94 94 84 80 91 80 53 53 45 48 46 53 64 70 86 96 100 94 59 62 52 50 51 33 38 44 47 36 39 34 29 30 33 34 39 50
84 85 86 89 92 92 92 93 93 92 88 84 84 83 83 85 91 98 100 98 92 81 98 90 55 55 52 53 57 62 62 70 89 99 98 66 51 68 83 56 33 29 29 29 34 27 28 28 28 29 30 37 47 52
86 88 90 93 95 90 94 94 94 94 91 87 86 86 86 84 93 99 93 81 89 92 100 97 64 51 49 55 63 69 62 71 87 99 99 73 58 70 87 76 40 33 28 27 26 28 33 28 31 29 29 39 54 56
91 95 93 87 86 85 84 89 94 92 92 89 89 88 88 84 89 97 83 85 86 97 98 100 79 75 56 75 80 65 76 73 96 98 96 90 62 66 82 42 34 29 28 29 27 26 28 28 28 27 30 45 54 62
90 91 94 91 91 92 91 88 88 92 95 92 92 90 95 98 99 97 89 88 88 90 100 100 90 91 58 59 57 69 68 95 65 93 75 61 68 73 45 36 33 30 33 30 31 34 32 35 32 37 45 47 59 67
91 94 92 88 90 89 87 92 90 88 88 94 96 100 100 99 91 91 98 100 98 96 93 92 59 86 66 76 75 84 74 76 84 65 49 76 67 43 34 32 31 31 30 38 48 45 41 45 41 50 50 51 58 65
94 93 90 91 92 91 92 92 89 87 87 97 100 100 97 81 84 97 100 100 100 100 88 58 55 74 66 92 95 74 98 84 87 54 63 61 50 51 37 36 36 56 52 52 51 51 46 50 50 51 56 64 68 72
88 88 92 90 92 92 92 90 86 87 95 92 93 91 92 95 100 99 100 99 79 63 66 74 60 62 84 74 96 95 91 99 90 62 82 63 92 75 69 68 67 67 63 60 60 60 55 54 53 53 60 67 74 78
88 89 92 95 93 92 90 89 84 87 76 64 75 99 91 100 100 99 94 83 84 72 83 88 93 98 89 81 100 100 100 87 73 91 66 83 76 72 68 68 67 64 78 72 71 70 66 66 65 66 75 80 85 88
91 91 85 86 87 88 86 78 75 72 72 90 100 99 100 97 86 88 66 71 93 89 84 84 88 77 88 99 99 94 86 86 90 82 67 87 81 73 73 78 68 69 83 94 84 83 88 88 90 90 91 91 92 92
84 88 83 82 80 83 85 75 64 50 62 92 82 96 88 88 88 93 94 90 90 94 92 93 86 89 100 100 94 92 100 94 91 90 91 85 82 78 79 81 82 82 87 87 89 92 93 92 92 94 93 92 90 95
80 77 74 78 78 75 71 59 51 51 67 76 83 88 91 89 95 96 97 97 88 91 99 99 100 100 100 97 100 96 90 88 93 89 84 74 82 84 82 84 87 88 89 91 90 90 91 92 93 95 94 93 94 92
75 69 87 84 68 72 65 49 54 72 77 82 88 86 87 88 94 94 92 90 83 95 100 100 100 100 86 96 92 78 91 91 84 82 80 85 88 88 89 86 89 86 85 89 90 89 90 90 91 91 93 95 94 94
71 67 79 75 68 61 56 56 64 65 83 83 84 92 84 86 90 90 90 89 96 94 86 92 75 93 90 80 86 88 86 81 80 79 82 85 88 92 92 85 86 84 84 89 89 89 87 87 84 86 90 90 90 92
77 71 80 74 61 57 66 66 55 75 85 81 85 84 84 90 87 86 89 90 89 83 78 81 88 84 89 85 89 88 87 82 82 87 90 91 89 90 90 86 83 85 84 87 88 80 81 87 85 86 83 83 89 90
77 82 78 72 62 63 74 70 50 62 81 81 76 81 79 86 85 89 88 84 80 83 88 88 89 90 88 88 90 92 92 91 87 88 86 86 86 87 85 83 82 84 80 85 85 83 80 80 81 84 86 88 89 90
69 67 74 60 58 61 73 69 71 65 68 75 70 68 86 76 84 88 86 73 84 90 88 90 92 92 93 93 91 90 88 82 88 84 83 87 85 80 79 85 87 81 81 84 84 88 89 87 86 87 92 95 94 90
62 70 69 64 81 74 70 64 71 71 68 77 72 66 82 86 88 91 77 86 90 91 91 92 90 90 88 91 90 88 89 87 85 80 83 85 86 84 85 86 87 91 90 90 85 90 91 88 89 92 93 94 86 86
61 58 69 68 90 84 97 88 89 84 87 85 76 77 84 86 88 69 89 86 89 89 89 88 89 90 90 89 83 84 86 84 79 81 83 84 84 84 82 84 85 89 88 88 86 88 90 89 91 86 78 79 80 80
52 79 83 86 78 90 79 80 65 70 78 78 73 81 80 84 66 75 85 83 87 76 78 89 79 76 72 75 76 80 84 80 78 81 83 80 82 86 84 85 86 86 84 84 87 89 83 82 75 77 77 77 77 78
78 87 78 81 73 75 80 81 78 70 80 72 74 80 82 70 76 74 78 78 83 86 85 81 76 75 77 79 78 79 86 82 82 79 87 84 84 81 83 82 84 86 86 88 84 82 83 80 78 77 74 75 73 75
88 81 77 79 79 76 76 83 82 82 76 79 79 70 74 74 74 81 69 82 84 79 88 88 86 81 79 80 81 80 84 82 78 83 85 83 88 88 90 85 82 85 72 78 80 81 80 78 78 76 78 74 72 76
84 86 68 49 55 61 78 74 64 75 80 82 77 75 72 78 81 74 64 70 73 81 78 77 76 78 80 81 81 84 84 83 86 85 84 82 80 76 82 84 85 80 70 73 76 76 78 78 78 77 78 77 75 74
70 70 88 82 76 65 81 77 78 82 78 64 64 81 77 76 82 76 76 76 78 71 73 74 75 75 78 82 83 85 86 87 89 88 85 83 81 77 78 81 81 78 77 77 77 76 75 76 76 76 75 78 79 73
82 69 68 85 75 78 82 81 80 71 67 67 78 76 78 73 81 80 77 79 77 79 81 82 86 85 84 83 87 87 88 90 87 88 89 91 90 90 81 80 79 78 79 79 72 73 71 74 74 75 75 78 77 76
82 68 75 76 80 85 89 78 86 83 66 68 64 66 70 81 86 78 80 79 82 88 88 88 88 87 89 88 89 88 89 90 90 92 90 91 90 83 81 80 81 82 79 79 81 82 82 83 83 82 81 81 80 80
66 71 71 73 83 86 87 85 80 78 78 79 76 79 80 82 83 80 81 85 83 84 83 86 86 86 86 87 89 88 90 89 84 82 80 82 82 83 82 81 80 78 77 76 77 77 78 76 77 77 75 75 76 74
78 74 76 80 86 80 81 86 80 81 82 81 83 80 83 80 82 83 84 86 82 84 82 80 82 86 80 80 81 82 78 82 83 83 79 81 83 81 78 76 77 76 75 75 75 75 72 72 75 74 75 73 71 67
78 77 75 78 84 80 82 78 70 80 78 79 84 82 84 81 84 84 78 80 82 80 81 81 80 80 79 78 76 78 76 83 84 86 86 90 91 87 79 78 77 77 71 76 76 76 71 66 73 69 69 71 72 71

GFSWCAN_sfc_rhum_102.txt.gz
RH
63 69 71 72 73 71 70 70 72 74 75 76 77 78 79 78 75 84 70 72 88 83 61 50 46 58 74 68 76 94 78 66 98 98 83 63 66 55 57 43 99 82 91 87 74 79 76 33 37 59 66 50 55 56
73 72 74 74 75 74 75 76 77 76 76 80 80 82 81 79 79 79 69 58 77 96 63 53 46 40 40 52 74 73 87 82 99 98 84 96 91 79 73 77 57 95 52 71 57 59 44 38 42 50 50 54 53 54
73 73 73 74 76 78 78 79 79 81 80 84 84 81 82 81 78 82 67 63 88 94 90 69 60 43 38 46 46 68 56 46 55 91 100 98 94 87 96 71 77 51 58 64 72 52 59 47 34 39 41 44 41 42
76 75 74 76 78 79 79 80 81 84 87 84 84 84 84 82 83 83 92 78 87 92 91 64 37 51 42 42 42 51 60 54 60 74 99 100 89 59 82 83 88 62 42 45 47 50 45 42 39 40 38 37 44 39
79 79 78 78 78 79 80 82 86 89 88 87 84 83 86 83 84 88 92 88 84 77 81 80 63 54 38 44 49 48 57 69 79 93 100 96 64 70 65 60 62 38 39 48 68 58 54 56 36 31 37 35 43 50
79 80 81 82 83 84 87 88 89 90 92 89 86 84 87 87 85 94 100 90 83 78 96 84 48 56 53 50 55 54 57 66 85 98 99 76 58 72 83 61 37 34 43 38 42 34 32 32 29 26 30 46 48 58
87 88 87 87 86 88 90 92 94 95 93 91 85 84 85 87 94 98 94 82 84 88 100 96 70 48 49 58 66 66 62 74 92 99 99 78 66 70 100 79 44 38 33 30 27 30 35 30 36 31 29 49 61 66
90 89 89 92 94 94 90 85 94 95 94 93 88 84 85 85 92 98 89 85 88 98 100 100 89 68 51 80 82 62 78 79 98 99 97 88 63 72 88 49 38 31 28 28 29 26 36 35 36 28 31 44 55 70
96 93 93 94 93 90 87 86 89 95 95 94 87 86 93 97 100 97 91 89 93 94 100 100 86 82 60 71 72 72 72 94 74 92 76 60 68 79 51 41 38 33 33 31 27 32 36 36 50 39 41 44 65 72
90 91 92 91 91 90 91 89 88 94 94 92 94 100 100 99 89 90 99 100 100 98 99 93 64 86 68 81 87 90 80 80 86 71 50 79 69 45 37 36 35 35 35 43 47 50 50 50 47 53 48 52 62 72
88 91 92 93 91 92 91 92 90 88 93 98 100 100 97 78 89 99 100 100 100 99 88 71 61 77 62 94 94 75 97 83 83 57 68 66 60 78 62 64 65 63 57 55 54 54 51 54 55 55 56 69 73 77
89 90 92 93 92 92 92 93 89 89 96 90 94 92 94 95 100 100 100 93 85 68 66 77 66 64 81 72 94 95 88 96 87 81 96 68 94 69 65 65 65 65 68 64 60 62 60 60 63 66 73 76 80 83
88 91 93 94 94 92 91 93 81 87 83 69 84 100 95 100 99 92 88 83 81 80 77 81 95 98 84 81 100 100 98 83 66 94 71 90 77 70 68 70 64 59 75 75 71 74 77 83 82 84 86 85 89 93
91 88 93 94 92 92 93 86 87 92 93 98 100 99 97 97 85 80 74 75 92 88 82 80 91 83 91 98 97 86 84 80 82 86 82 90 83 72 70 71 70 72 77 85 82 82 88 90 93 96 96 93 92 93
86 84 87 92 90 85 83 86 75 67 67 92 86 91 90 88 90 96 99 94 94 90 79 87 83 83 100 99 93 88 97 89 83 92 93 90 85 77 74 76 79 83 87 84 89 92 93 94 94 96 96 94 92 92
76 73 90 91 90 79 82 78 53 60 77 75 83 86 93 91 96 96 100 97 92 96 99 86 100 98 98 91 93 83 76 86 92 92 89 75 83 83 82 82 86 86 88 91 90 91 92 93 93 95 95 94 94 93
83 66 84 81 87 74 65 52 57 73 76 79 88 90 91 89 95 96 93 92 91 98 100 96 99 91 88 85 94 86 92 92 84 87 81 84 86 87 88 86 88 88 88 88 89 89 91 93 93 90 93 96 94 94
70 74 80 71 60 58 51 52 64 64 82 87 87 92 84 92 93 92 92 93 97 99 95 92 77 94 93 92 90 94 91 88 87 81 81 82 83 86 89 89 89 86 88 90 89 91 88 91 89 91 92 92 92 93
70 69 80 80 70 67 74 66 55 74 86 84 85 84 85 91 89 88 89 92 90 81 80 88 84 88 91 88 91 89 90 85 83 81 86 87 87 87 86 85 85 86 87 90 92 89 88 87 86 85 86 88 91 92
82 83 78 76 70 65 71 68 52 67 84 82 76 85 84 91 89 90 88 86 79 86 90 90 91 92 92 90 90 90 91 91 93 93 94 89 82 82 88 82 82 82 81 82 84 83 82 88 86 86 86 89 91 93
68 65 71 57 57 62 74 70 71 70 73 79 76 70 88 75 85 88 86 71 81 89 89 90 91 90 90 92 92 91 90 86 90 87 91 93 86 75 79 84 88 86 82 86 89 91 89 88 88 89 92 94 94 94
59 71 68 64 78 68 70 64 69 71 72 78 74 69 84 86 87 90 75 85 89 91 92 93 92 92 91 91 91 90 89 92 82 85 90 89 92 91 89 87 85 90 90 92 88 90 90 86 89 92 93 95 93 91
64 59 72 72 86 78 93 93 85 85 84 80 74 75 84 86 88 78 90 89 92 92 92 92 93 90 90 91 80 82 88 79 79 84 84 87 87 89 91 92 89 91 93 92 90 92 93 92 94 94 94 94 91 92
59 79 84 84 75 88 73 78 66 76 85 85 83 88 86 89 78 86 90 90 92 85 85 92 78 88 88 78 79 83 87 88 76 80 88 83 85 89 88 89 90 91 89 90 92 94 93 95 93 86 85 85 85 86
76 86 79 82 72 74 80 82 83 68 86 70 73 84 84 80 81 83 87 88 89 90 88 86 89 80 84 83 82 83 91 81 81 80 91 86 87 87 88 89 90 91 91 94 94 94 94 87 85 83 81 82 80 82
87 78 76 79 78 75 74 81 79 82 75 79 81 72 75 73 73 86 78 86 89 85 91 91 90 88 84 82 81 82 87 89 77 84 88 87 91 90 92 91 90 87 78 84 85 85 84 84 82 80 82 77 77 80
83 84 67 48 59 62 78 73 63 74 81 84 78 78 72 77 83 83 75 73 78 84 79 80 79 80 83 85 84 85 85 84 87 88 88 86 87 89 92 92 93 92 75 77 80 79 81 82 82 80 83 81 80 80
68 69 87 78 74 63 76 74 76 81 78 68 65 81 81 84 86 81 82 76 82 77 74 75 77 76 80 84 86 88 91 89 89 87 83 84 88 90 86 89 87 84 86 85 82 82 80 81 81 81 81 83 85 80
78 66 66 83 73 76 82 79 80 70 65 82 78 79 81 79 88 83 82 82 78 77 81 83 90 91 87 84 87 88 90 92 91 90 89 92 91 93 92 91 84 83 84 82 78 80 78 81 81 82 78 81 82 82
77 63 72 74 81 84 89 83 88 80 65 69 66 70 75 84 86 77 78 79 84 88 88 88 88 86 92 90 89 90 91 92 93 93 90 92 93 91 86 84 86 88 84 83 84 84 82 83 82 83 82 84 84 82
63 66 69 72 83 86 84 80 82 79 81 82 79 80 80 85 85 79 84 86 83 87 84 86 86 86 85 88 89 88 91 89 90 89 88 88 87 86 85 85 86 82 79 78 79 78 80 80 80 78 76 80 83 81
72 70 75 78 86 79 88 88 79 85 84 83 83 80 84 85 84 84 84 90 82 85 84 81 83 86 80 80 84 84 83 84 85 86 88 90 87 84 80 80 81 78 77 77 77 77 75 73 78 78 80 78 80 80
78 78 75 77 83 78 78 85 69 78 76 78 80 79 82 85 88 88 79 80 85 84 82 81 80 79 77 76 74 81 80 81 87 90 91 93 94 95 90 89 81 78 75 78 78 76 74 72 77 77 82 85 84 83

GFSWCAN_sfc_rhum_105.txt.gz
RH
61 67 71 72 72 72 68 69 71 71 71 73 74 75 76 76 80 88 92 89 96 99 75 64 63 74 80 85 96 98 92 97 98 96 98 89 92 72 68 54 84 96 86 91 88 94 86 47 49 64 81 68 68 68
66 70 72 73 74 74 72 74 71 73 75 76 76 76 73 74 75 81 97 79 90 98 92 75 68 65 63 59 84 83 97 99 100 100 99 98 97 94 92 94 97 98 78 88 80 77 77 74 82 80 65 64 67 64
72 76 76 75 75 74 73 74 76 77 78 78 76 74 72 76 76 81 92 83 92 99 93 83 70 58 51 54 60 88 82 60 83 95 99 100 99 99 97 94 94 97 86 100 88 76 77 72 67 62 55 58 50 50
75 76 75 76 76 75 75 76 77 79 79 80 81 81 79 77 77 78 95 87 94 98 100 81 53 69 56 55 59 67 63 68 76 84 96 99 99 79 91 79 80 70 89 98 96 82 73 74 66 51 52 48 47 59
77 77 76 76 77 79 78 78 80 80 80 81 79 83 81 80 79 88 96 96 93 92 97 96 82 66 62 62 63 58 64 75 89 97 100 99 91 84 93 85 86 58 74 84 99 84 88 69 49 56 56 55 62 73
77 79 79 79 79 79 80 80 80 82 81 81 85 85 82 84 83 96 100 95 92 87 100 99 72 65 61 68 64 64 71 77 90 99 99 92 69 85 100 92 45 43 42 42 54 50 53 44 45 50 60 71 70 73
77 78 79 82 84 84 84 84 86 89 89 90 90 85 86 86 94 97 95 94 83 90 100 99 94 65 52 56 79 80 73 85 92 98 99 92 80 81 99 90 50 46 44 41 38 39 53 53 59 51 66 71 74 75
81 85 88 91 90 89 88 88 88 89 91 94 91 88 86 87 87 93 93 92 83 96 99 99 94 88 65 87 93 86 93 89 99 98 97 96 86 91 96 67 54 44 38 39 38 46 59 51 53 59 62 68 77 85
89 92 94 93 92 93 92 93 92 89 94 95 92 86 95 98 100 98 81 92 97 97 99 98 98 91 74 83 85 86 89 100 98 98 98 93 90 91 68 62 61 60 59 58 50 54 53 56 59 60 64 69 82 87
93 96 97 93 94 94 93 87 86 95 95 94 93 100 100 99 87 88 98 100 100 100 99 96 91 93 83 97 99 100 95 97 98 94 82 94 90 76 70 74 75 74 66 65 73 74 69 72 70 69 72 70 80 86
92 92 92 93 92 92 91 89 92 96 90 98 100 100 98 84 95 100 99 99 99 99 96 89 87 94 83 94 97 97 96 97 92 86 89 93 97 90 67 68 70 76 75 70 70 71 72 81 85 85 84 85 87 86
87 90 92 92 93 90 92 89 93 94 97 93 94 94 95 97 100 99 98 100 98 87 92 96 90 84 94 90 96 96 95 94 92 87 96 98 95 76 74 74 71 80 80 76 74 78 83 82 83 84 86 90 91 90
91 91 94 91 92 90 91 91 81 84 83 74 93 100 98 100 99 99 98 97 98 94 90 96 98 98 95 96 99 98 94 90 85 98 97 94 90 77 75 73 73 72 80 76 76 78 82 85 88 88 90 89 91 93
90 93 93 94 92 92 93 86 87 93 94 99 99 99 98 98 95 95 97 95 99 97 95 96 99 98 99 95 92 86 91 88 92 97 96 95 91 83 76 77 77 82 84 93 88 83 88 89 93 95 95 96 94 94
89 92 94 95 94 93 91 90 90 92 88 97 90 98 98 98 98 99 100 98 98 98 95 95 98 95 98 95 94 94 89 87 96 99 98 97 91 90 83 85 89 89 94 95 95 97 97 95 94 96 95 95 94 95
84 86 92 90 88 83 77 80 78 75 89 86 92 96 97 95 99 98 98 99 97 99 99 95 91 93 97 94 91 86 91 97 99 98 98 95 93 93 96 94 96 96 96 98 98 97 97 96 95 96 94 94 95 94
80 95 88 75 73 79 76 71 80 85 87 88 98 96 98 96 98 99 98 98 98 99 97 94 91 82 96 97 97 97 98 99 99 99 98 96 97 97 97 96 96 96 96 97 97 96 96 96 94 91 94 96 94 95
89 89 89 81 75 65 68 73 84 79 94 95 96 97 94 97 97 97 98 98 98 99 99 98 96 96 98 96 98 98 98 98 98 97 97 97 96 96 97 98 97 96 97 96 95 93 92 92 91 93 94 94 93 94
77 78 80 80 76 78 83 83 77 90 96 96 95 96 96 98 95 94 94 96 97 92 96 95 93 98 98 98 98 98 97 98 98 97 98 96 96 97 95 96 96 96 96 97 96 95 93 90 91 92 93 92 93 94
87 86 88 85 84 83 82 88 76 87 96 97 95 96 98 98 98 94 92 93 89 95 94 95 98 98 99 99 98 97 98 98 98 97 98 99 96 96 96 96 98 95 94 94 94 92 92 94 93 91 92 93 93 95
79 76 75 83 78 84 91 92 89 93 94 94 90 92 98 87 95 97 95 79 90 97 97 98 98 98 98 98 98 96 96 95 98 98 98 98 98 96 97 97 97 97 97 96 95 95 93 94 95 93 94 95 95 94
75 73 87 81 89 82 88 88 88 88 92 94 96 90 96 98 98 97 79 91 96 98 98 98 98 98 97 96 96 96 96 97 94 93 92 93 97 98 98 98 96 96 96 96 93 94 95 93 92 93 94 95 94 94
74 74 89 85 85 88 100 99 96 95 94 95 89 88 95 97 98 73 96 96 97 97 96 97 97 97 96 96 93 92 95 90 94 97 96 94 94 95 95 96 96 95 95 95 93 94 95 94 94 94 95 95 95 95
68 89 90 93 87 96 88 92 86 88 93 93 93 96 94 96 88 93 96 96 97 95 94 96 91 96 94 89 92 93 95 92 89 91 95 89 92 95 95 95 94 95 93 93 94 95 95 95 94 94 95 95 95 94
79 87 90 90 85 89 93 95 95 85 96 92 93 96 97 94 96 95 95 96 95 95 95 95 90 91 94 94 91 92 92 95 94 91 95 94 93 91 93 94 95 95 94 95 96 96 96 96 92 91 89 90 90 92
94 85 84 90 91 88 91 94 94 93 91 92 94 91 94 92 90 98 92 97 97 96 97 96 96 94 93 94 94 94 96 93 84 90 94 93 95 95 95 95 95 96 96 96 95 95 94 92 91 89 90 88 88 90
95 95 80 59 71 74 91 87 77 89 95 97 94 91 91 95 99 96 91 95 97 98 97 94 93 95 96 95 97 97 96 94 94 95 92 92 92 92 94 96 96 97 94 89 89 89 90 90 90 90 91 92 92 91
83 82 96 92 86 77 90 91 93 95 94 85 87 98 99 98 98 98 98 97 97 95 97 97 90 91 94 95 95 95 97 98 97 92 90 92 95 95 94 94 95 95 95 95 93 91 90 89 90 92 92 93 95 94
93 82 85 90 88 91 93 94 96 89 85 93 96 97 98 95 97 97 97 95 90 89 93 94 96 96 93 91 93 94 94 95 95 94 95 96 95 96 96 96 95 92 91 91 84 88 88 90 90 90 90 93 94 93
90 88 88 92 94 98 97 95 96 95 85 90 88 83 88 98 96 92 94 96 94 97 97 96 95 94 96 95 95 94 94 94 94 96 96 96 97 96 96 96 96 95 94 94 94 93 88 92 91 93 95 95 95 96
89 90 87 92 97 96 96 90 88 87 85 87 90 89 97 99 98 95 95 97 95 95 96 97 95 94 94 95 97 96 97 95 95 95 96 96 96 96 96 96 95 95 96 97 97 96 96 97 96 95 96 96 95 96
92 89 92 98 99 98 97 97 96 97 98 98 98 96 98 98 100 100 96 96 96 97 99 97 100 100 99 98 98 96 95 98 97 96 97 97 98 97 96 96 95 94 94 94 94 93 92 95 97 94 94 95 96 98
84 82 86 94 98 96 93 96 91 94 95 96 98 97 99 98 100 100 96 97 98 99 99 99 99 98 94 95 96 98 100 100 100 100 100 100 100 100 98 97 98 96 95 96 96 95 94 93 97 96 96 96 95 97

GFSWCAN_sfc_rhum_108.txt.gz
RH
65 66 64 64 68 70 67 68 69 71 70 75 72 78 81 80 78 92 97 96 97 100 89 70 69 82 84 90 96 88 86 94 94 97 90 91 96 82 88 65 89 97 96 94 86 96 86 64 75 72 80 75 75 74
66 63 65 71 74 74 68 68 71 73 72 74 72 74 73 74 75 82 97 88 95 99 98 89 80 71 70 68 82 88 88 98 100 98 97 97 97 96 96 95 98 98 98 90 80 76 69 80 82 88 81 67 68 67
66 68 71 74 74 73 74 73 75 75 76 71 72 71 72 73 71 79 93 89 97 98 93 92 80 60 59 65 67 89 96 78 96 90 97 96 96 95 97 90 93 99 96 99 86 90 92 85 76 71 62 58 54 55
68 72 73 75 77 77 76 76 76 76 76 77 77 78 76 75 69 73 95 94 95 96 99 88 64 74 62 64 67 65 69 68 80 94 96 94 96 82 93 78 84 96 99 100 96 98 91 78 83 72 66 59 61 80
70 74 75 77 77 76 78 78 78 78 77 75 75 77 76 78 77 85 97 95 93 91 96 97 81 53 51 69 71 71 76 84 95 95 99 96 96 97 90 95 92 78 83 84 96 90 86 74 67 67 63 69 79 80
74 76 77 77 78 77 77 77 79 80 79 80 78 75 75 78 81 98 100 99 96 95 100 98 79 74 67 75 74 76 74 76 91 97 96 99 82 89 99 96 61 46 43 47 56 50 57 54 54 68 77 76 79 81
78 74 75 78 79 80 80 80 80 80 81 82 80 81 78 88 95 98 93 89 85 92 100 98 95 75 69 60 85 84 78 89 92 97 99 98 85 87 98 98 54 48 48 49 49 55 66 63 78 71 72 76 80 80
74 74 77 78 79 80 82 85 85 85 84 85 86 87 87 88 87 93 94 90 82 96 99 99 94 91 70 89 93 91 97 97 99 99 97 96 90 94 98 78 78 74 64 62 61 63 62 61 68 72 70 74 83 87
78 79 80 81 83 87 88 90 90 89 89 91 92 89 96 98 100 95 85 89 97 95 98 97 98 92 78 86 89 95 95 99 98 99 98 97 94 98 96 89 88 84 80 77 67 67 66 72 70 71 70 76 87 89
81 83 86 90 90 91 95 94 94 93 93 94 96 100 99 99 84 83 96 99 100 100 100 98 85 98 84 97 100 100 99 99 99 95 88 100 97 98 88 79 80 81 78 78 86 90 87 89 88 85 82 80 86 88
90 91 90 91 94 96 95 93 91 90 89 98 100 100 96 84 96 100 99 99 99 98 97 86 91 96 86 94 98 99 98 98 96 87 94 96 97 92 80 81 77 79 79 77 78 79 83 88 88 91 89 89 87 86
94 93 94 94 94 93 93 91 91 95 97 92 92 92 96 97 100 99 98 98 97 93 95 97 95 89 94 94 97 98 96 93 92 91 99 96 94 86 76 75 81 81 80 77 74 78 80 82 87 87 85 86 87 86
92 92 93 93 93 92 91 88 80 87 83 80 94 99 98 100 99 97 97 99 100 96 96 98 98 96 96 98 99 97 97 95 89 99 95 92 90 80 78 80 75 74 81 78 76 77 83 86 86 90 90 90 93 93
90 92 93 94 93 92 90 86 90 90 93 99 99 98 96 98 96 94 91 91 94 98 96 96 98 96 99 95 96 94 93 96 96 98 96 96 92 86 84 81 77 81 89 96 91 87 89 91 93 94 96 96 95 95
95 95 94 93 93 90 86 90 90 92 94 99 94 99 98 97 99 100 99 98 98 99 96 97 97 96 99 95 88 94 89 91 96 98 99 96 98 95 93 90 98 95 97 98 98 99 99 97 96 96 96 96 94 95
90 92 93 93 92 86 90 86 87 79 90 89 92 96 99 95 98 98 98 99 97 100 97 94 94 94 99 96 90 82 94 96 97 100 99 98 98 98 98 97 99 97 98 99 100 100 99 98 98 97 95 95 95 94
85 97 91 88 87 82 78 96 95 95 90 92 98 98 98 97 98 99 98 98 97 99 97 90 91 85 95 95 96 96 98 98 99 100 99 98 99 100 99 98 99 97 97 97 99 98 98 96 93 91 94 96 94 95
96 90 80 76 75 77 84 83 90 86 96 96 96 98 96 98 98 97 97 97 98 99 97 98 94 94 98 97 99 98 98 97 98 98 98 99 97 97 98 98 98 98 98 99 96 97 96 95 94 95 94 94 93 94
92 92 81 79 76 85 98 87 81 95 98 98 98 98 97 99 95 95 96 96 96 90 92 92 94 100 99 99 98 98 98 99 99 97 98 97 98 100 98 97 98 99 98 98 97 98 98 96 97 94 93 91 93 94
89 84 74 75 77 86 83 86 81 87 97 97 93 98 98 98 99 97 93 94 87 95 94 96 98 98 99 98 98 98 98 98 98 99 98 99 98 97 98 97 98 98 97 97 97 95 92 94 93 92 93 93 93 95
86 87 84 85 83 86 90 94 94 96 94 93 95 93 98 94 98 97 96 78 92 97 97 98 98 98 98 98 98 96 96 95 98 97 98 98 98 98 98 98 97 98 99 98 95 96 95 95 95 94 95 96 95 95
82 80 90 81 88 85 89 93 90 95 96 98 97 92 98 98 99 98 87 92 98 98 98 98 98 98 98 97 97 96 97 96 95 95 94 93 97 98 97 98 97 98 96 97 94 96 96 94 94 95 94 96 94 94
77 77 87 82 86 88 99 99 97 96 96 97 94 93 98 98 98 80 98 98 98 97 96 97 97 96 96 96 92 92 95 92 95 97 98 97 96 97 98 98 98 96 95 95 94 94 95 94 95 95 95 95 94 95
66 89 92 94 89 98 91 95 91 93 96 96 94 98 96 99 83 93 97 97 97 95 94 96 95 95 91 88 92 94 95 95 93 93 96 95 95 97 98 98 96 96 93 93 93 95 95 96 95 95 95 95 95 95
78 84 88 91 88 91 95 97 96 90 97 96 94 97 97 94 96 96 96 96 97 96 96 96 92 94 95 97 95 95 95 95 94 93 95 97 95 93 94 96 96 96 94 95 96 95 96 96 96 96 96 95 94 95
94 89 89 97 95 93 95 97 98 96 94 97 98 95 93 92 94 99 93 98 100 99 99 98 98 96 94 95 95 95 97 96 93 92 94 94 96 97 96 96 95 96 96 97 96 95 96 97 96 95 96 94 93 94
98 98 90 67 76 82 93 90 84 93 99 99 98 94 92 99 100 98 96 96 97 99 99 98 94 94 96 96 95 96 96 94 95 96 94 93 93 93 96 98 97 97 96 95 95 93 94 94 94 94 96 95 94 92
91 90 96 95 88 84 93 95 97 100 98 91 88 99 100 100 100 98 98 97 96 96 94 94 94 93 94 95 96 96 97 97 97 96 92 92 95 96 96 96 95 96 96 95 94 93 92 93 93 94 93 94 96 94
95 90 86 95 93 96 98 100 99 98 93 97 99 100 100 96 97 97 99 99 97 92 95 96 97 98 95 95 94 94 95 97 96 95 96 96 96 96 97 97 96 96 96 96 94 95 91 94 94 94 94 95 96 94
92 93 92 98 97 100 100 98 99 100 98 98 90 84 90 98 97 96 96 95 95 100 100 100 100 97 99 98 98 96 95 96 97 98 98 98 98 97 96 97 98 97 96 94 95 94 90 94 93 94 95 96 97 98
92 92 93 96 98 99 100 99 92 87 95 93 98 97 100 100 98 97 97 100 98 98 96 100 99 100 97 99 100 99 99 96 97 97 97 98 98 98 97 97 97 98 98 97 97 96 97 97 96 97 97 96 97 96
95 96 97 99 98 98 99 100 100 98 100 100 100 100 100 99 100 99 98 99 96 100 100 100 100 100 100 100 100 100 100 100 100 100 100 100 99 99 98 98 98 97 94 92 94 98 97 97 98 99 99 100 100 99
86 83 100 99 99 100 98 97 100 98 100 100 99 100 100 99 100 98 99 100 98 100 100 100 100 100 100 100 99 100 100 100 100 100 100 100 100 100 99 99 99 100 97 98 99 97 97 99 100 100 99 100 100 100

GFSWCAN_sfc_rhum_111.txt.gz
RH
74 72 67 69 66 64 66 65 65 66 70 74 72 76 79 74 66 92 96 95 96 98 83 76 72 83 87 89 94 85 86 92 97 97 96 95 96 85 94 69 97 97 98 96 94 94 85 65 70 79 82 78 76 78
71 71 69 71 71 70 65 68 70 70 72 73 71 73 73 70 73 85 95 90 95 99 93 91 86 79 81 77 84 89 87 95 98 98 97 97 96 95 94 94 98 98 98 93 78 78 73 90 87 85 90 77 67 69
73 71 70 71 70 72 69 72 74 73 74 74 73 76 71 72 72 81 93 91 98 100 94 93 77 60 68 75 66 87 92 84 96 90 96 93 98 92 99 94 94 98 99 100 94 92 90 88 84 85 80 74 58 74
80 73 69 70 71 74 74 76 77 77 75 72 75 72 71 72 72 76 96 90 96 99 100 86 65 79 67 70 74 68 68 74 84 92 97 98 94 83 96 81 88 99 98 99 99 99 95 81 74 70 62 74 80 84
75 73 72 72 74 76 78 78 78 78 73 70 70 71 71 74 74 87 97 95 93 90 97 96 87 56 53 62 73 77 80 84 95 96 99 98 92 97 95 94 98 91 71 97 98 82 96 92 74 75 84 88 86 84
72 74 73 74 76 76 77 78 78 78 76 77 72 70 70 75 74 97 100 98 91 87 100 98 81 82 70 77 82 84 81 89 94 96 97 96 93 91 98 98 66 65 65 60 64 72 73 77 82 79 84 82 82 84
74 72 73 75 76 76 78 79 79 78 78 79 79 76 74 77 92 100 96 87 84 91 100 96 96 77 72 74 87 89 82 91 92 98 99 98 92 88 97 95 91 81 76 73 70 70 74 81 86 74 79 82 81 80
74 74 74 77 78 78 79 79 79 80 81 81 82 79 80 78 83 99 95 89 83 95 95 99 94 91 73 88 94 94 98 97 99 99 100 99 92 99 98 97 85 81 74 72 74 71 76 70 72 77 73 75 82 89
77 79 79 79 78 78 78 79 80 81 83 82 82 86 95 98 100 96 89 86 96 93 97 95 98 94 80 88 90 97 97 100 97 99 98 97 98 98 94 86 85 85 86 86 77 77 76 81 82 82 76 80 87 90
78 78 78 79 79 80 81 82 84 86 88 91 97 100 100 99 83 84 99 100 100 100 100 98 92 98 90 97 100 100 100 99 99 96 93 100 98 96 89 84 83 83 80 78 86 91 89 90 92 89 86 85 88 86
73 76 79 80 82 83 86 87 88 92 95 100 100 100 96 79 94 99 98 98 98 98 94 87 88 96 87 94 97 99 99 99 98 88 98 98 97 93 84 81 78 75 75 74 74 75 78 86 91 91 89 86 82 81
73 77 79 82 86 88 88 90 93 97 97 93 94 91 96 97 100 98 98 98 96 92 95 92 87 91 94 94 97 99 96 96 93 96 99 96 93 88 82 78 76 83 80 77 73 76 78 81 86 88 87 87 89 88
88 91 92 92 91 90 92 94 88 85 85 83 94 100 97 99 99 99 98 98 95 97 98 99 99 96 98 97 99 97 96 95 91 99 92 91 91 86 86 83 78 80 86 78 78 80 79 80 84 89 90 90 93 94
93 93 94 95 95 95 94 85 87 89 94 99 99 98 96 98 95 94 94 92 94 97 97 99 98 97 99 96 98 98 95 96 99 98 95 94 95 91 90 89 85 87 85 95 89 84 89 91 94 96 97 97 96 96
94 93 92 94 93 93 88 84 90 93 97 99 93 99 99 94 99 99 99 94 98 98 97 97 97 97 99 98 91 94 90 91 98 97 99 91 95 96 96 90 97 93 96 96 97 99 99 97 97 97 97 97 96 96
90 92 94 93 94 89 86 91 85 88 96 88 92 98 99 97 99 98 98 99 98 99 98 94 97 99 98 96 91 87 93 97 96 99 99 99 99 99 99 98 99 98 97 99 100 100 99 99 99 99 95 95 96 95
92 99 93 94 92 89 87 94 93 98 97 92 99 97 98 97 98 99 98 97 97 99 98 95 89 87 95 96 97 97 99 98 97 99 99 99 98 99 100 99 100 97 97 99 99 98 100 98 95 93 96 97 95 95
97 97 91 88 86 90 97 90 96 93 94 96 96 98 95 97 98 97 97 96 98 99 95 97 88 94 98 96 98 99 98 98 98 99 98 99 97 98 98 98 99 98 99 99 97 97 96 96 96 98 97 96 94 94
94 91 86 81 83 95 98 90 82 96 98 98 98 97 97 98 96 95 95 96 97 95 91 91 94 100 99 98 98 98 99 99 99 99 99 98 99 100 99 98 99 100 99 98 99 99 99 98 99 97 94 92 95 96
82 87 87 81 72 87 96 89 82 84 98 98 94 98 98 97 98 98 93 93 88 95 95 96 98 98 99 98 98 98 99 99 99 100 98 98 99 98 98 97 98 99 99 99 99 97 98 98 95 95 95 96 95 96
89 90 85 80 86 84 88 94 96 93 91 92 94 91 98 96 98 97 96 80 92 98 98 98 98 98 98 98 99 97 97 96 98 99 99 99 98 97 100 99 98 98 99 99 98 98 97 97 97 95 97 97 96 96
95 89 91 80 90 86 94 95 92 96 94 97 98 91 98 98 99 98 90 93 98 98 98 98 98 98 98 98 98 97 97 96 95 95 95 94 98 98 98 99 98 98 98 98 95 96 96 94 95 95 96 97 95 95
77 76 88 83 90 87 95 99 96 96 96 99 95 94 99 99 98 80 98 98 99 98 98 98 97 97 97 97 93 93 97 95 98 98 98 99 97 98 99 100 99 98 98 98 94 94 96 95 95 96 96 96 96 96
63 87 92 94 88 98 96 98 92 93 97 96 94 98 97 99 86 92 99 100 98 96 94 96 96 97 94 89 94 96 97 98 96 95 97 98 98 98 99 99 98 97 96 95 95 95 95 96 95 95 96 96 96 96
81 87 87 90 88 92 96 98 96 91 98 96 95 98 98 94 96 96 96 97 96 96 97 95 93 95 97 98 97 96 96 98 99 98 97 98 98 95 95 96 96 97 96 96 97 96 97 96 96 96 96 96 95 96
95 94 91 98 96 92 94 97 97 97 94 96 96 96 90 92 93 99 92 99 99 99 100 100 100 99 97 98 98 98 98 98 96 96 96 95 96 97 97 97 96 96 96 97 97 96 96 97 96 96 96 95 94 95
96 97 88 64 77 78 93 90 82 92 98 99 97 96 92 99 100 98 97 98 99 98 98 98 97 97 99 99 96 96 96 95 96 97 94 93 93 94 96 98 97 97 96 96 97 96 96 97 96 96 97 97 96 94
92 85 94 96 90 86 96 97 98 100 99 93 86 99 100 100 100 98 100 98 98 95 96 97 96 96 96 96 96 97 96 97 97 96 94 92 95 95 96 96 96 96 97 96 96 96 95 95 96 96 95 96 98 96
96 93 86 98 95 96 100 100 100 97 93 97 99 100 100 98 99 99 98 97 96 95 99 99 99 100 98 97 96 95 96 97 94 94 96 98 97 96 96 96 96 96 97 97 96 97 95 96 95 94 94 96 98 97
95 95 94 99 96 100 100 99 100 100 98 98 94 84 93 98 98 99 98 96 98 100 100 100 100 100 100 100 100 97 96 97 98 98 98 99 99 97 97 97 97 97 97 96 97 96 95 97 96 96 96 98 98 98
93 94 96 97 99 100 98 99 92 89 97 97 100 100 100 100 99 98 100 100 100 100 99 100 100 100 98 100 100 100 100 98 98 97 98 99 98 98 98 98 98 98 98 97 96 96 97 98 98 97 97 98 99 98
97 100 98 99 100 98 99 100 100 98 100 100 100 100 100 99 100 100 99 98 99 100 100 100 100 100 100 100 100 100 100 100 100 100 100 100 100 100 99 100 99 97 96 98 99 99 99 100 100 100 100 100 100 100
96 98 100 100 100 100 99 96 100 100 100 100 100 100 100 98 99 98 99 100 97 99 100 100 100 100 100 98 98 100 100 100 100 100 100 100 100 100 100 100 100 99 97 100 100 100 100 100 100 100 100 100 100 100

GFSWCAN_sfc_rhum_114.txt.gz
RH
73 74 74 79 74 78 79 74 68 66 66 70 71 74 75 75 74 91 93 94 96 99 94 78 76 85 88 90 97 83 87 87 95 96 96 94 95 92 95 70 97 98 98 97 96 96 86 83 84 89 94 88 85 86
76 77 78 76 74 74 69 64 67 69 71 72 73 73 76 74 72 85 97 92 94 99 93 90 85 80 80 78 89 91 86 92 98 98 98 98 96 93 94 92 100 98 98 96 90 78 89 92 89 89 84 91 85 68
77 79 81 80 76 73 69 70 72 72 73 74 73 72 74 74 78 88 94 96 99 100 95 95 83 62 77 79 71 93 92 83 94 91 99 98 99 92 96 92 95 97 100 99 99 91 94 91 86 81 90 93 82 97
77 78 77 77 76 74 73 73 74 76 77 74 72 74 74 76 76 81 98 92 98 100 99 85 66 77 68 75 85 76 72 79 89 90 94 98 96 82 91 79 91 98 100 96 99 100 92 81 82 82 86 84 88 83
78 79 78 76 77 74 72 75 77 77 76 76 73 72 76 69 70 87 96 95 91 93 99 95 85 58 60 68 84 86 84 86 93 95 98 94 97 95 93 96 97 84 98 99 98 98 99 97 91 82 86 87 83 83
77 79 79 77 73 74 73 75 78 78 78 72 69 70 70 71 75 95 100 98 94 90 100 97 81 83 74 74 79 87 84 93 94 97 96 95 90 94 98 96 85 81 78 92 98 83 89 96 82 79 87 87 85 88
76 77 79 80 75 74 74 77 79 77 77 75 74 72 71 75 94 99 98 88 87 91 100 95 95 80 77 84 93 96 86 93 94 98 99 96 94 96 94 92 90 82 76 97 82 81 86 78 89 81 82 88 86 81
76 76 78 78 76 73 75 77 78 75 73 73 72 74 77 73 82 98 93 89 83 98 98 96 94 94 76 90 93 93 97 98 99 97 99 99 95 99 98 93 84 79 78 76 77 76 80 75 78 76 70 75 83 88
75 77 77 78 76 76 77 77 77 75 74 75 75 77 93 98 100 99 85 88 95 94 96 94 95 94 84 90 92 98 98 99 98 99 98 99 99 98 94 90 87 89 87 85 78 77 77 83 84 80 83 87 89 88
73 77 78 78 78 78 78 79 79 75 73 79 92 100 100 99 85 90 99 100 100 100 100 97 91 97 92 100 100 100 100 99 100 98 98 100 96 92 90 89 88 80 74 75 85 87 86 86 88 89 87 85 83 84
73 73 76 76 78 78 78 77 78 75 78 99 100 99 95 87 97 100 98 99 99 99 97 92 90 90 86 96 98 99 99 99 98 92 99 97 96 92 87 89 83 81 80 73 72 74 74 83 87 89 87 86 88 90
71 73 74 76 76 77 78 80 81 90 99 94 94 94 96 99 100 98 92 94 89 89 94 88 91 86 92 94 97 99 98 96 95 96 99 96 93 89 82 87 79 81 77 72 72 80 77 75 83 86 86 86 89 91
73 75 75 77 78 78 80 82 84 89 91 92 96 100 99 99 98 97 96 96 93 96 97 98 98 97 98 97 98 97 98 95 90 99 92 90 91 85 89 84 80 78 78 73 74 75 77 78 80 87 87 91 94 95
78 79 79 79 79 81 83 83 88 94 98 100 99 98 94 99 94 93 91 92 93 97 98 99 97 99 100 98 99 98 94 94 99 98 96 97 93 93 92 89 83 84 83 94 87 82 87 90 93 96 97 97 96 97
83 84 83 84 87 89 90 91 93 97 99 99 96 98 99 94 99 99 98 98 99 97 98 99 98 97 99 98 95 94 90 94 97 97 98 93 87 94 95 88 96 92 95 96 97 99 99 98 97 97 97 97 96 96
96 96 96 93 93 93 93 94 95 98 98 88 92 96 99 96 99 98 99 100 98 99 99 98 98 98 98 96 96 90 94 97 96 98 99 99 98 99 99 97 98 97 97 99 100 100 100 99 100 99 97 97 97 96
93 98 93 94 92 92 89 95 98 98 95 91 99 97 97 97 99 99 98 96 95 100 99 96 93 89 96 98 98 96 98 98 98 98 99 99 97 99 100 99 100 97 97 99 98 98 100 98 96 94 98 98 96 96
95 94 95 93 90 93 99 99 98 94 95 96 96 98 95 97 98 97 96 96 98 99 96 97 90 92 97 96 99 98 98 98 98 99 99 98 98 98 98 98 98 98 98 99 97 97 97 97 98 100 99 98 97 96
94 92 87 82 84 96 97 92 82 96 98 99 97 97 97 97 96 96 95 96 96 96 89 91 92 98 100 99 99 98 99 98 100 98 99 99 99 100 100 99 99 100 99 98 99 99 100 98 100 100 99 98 99 98
89 86 82 72 74 93 90 90 84 86 97 97 93 97 96 97 97 98 93 94 92 95 95 96 98 98 99 99 98 98 98 98 98 99 98 98 97 99 99 98 98 99 100 98 98 97 97 99 99 99 98 96 98 98
92 91 80 78 86 83 93 97 95 93 87 93 94 92 99 93 96 96 95 80 92 98 98 98 98 98 97 98 98 96 97 96 99 98 99 100 98 98 98 98 98 98 98 98 97 98 98 99 98 97 98 98 98 97
97 83 88 81 88 85 92 95 92 94 93 97 94 87 98 98 99 97 90 94 98 98 98 98 98 98 98 97 97 97 97 96 96 97 97 96 98 98 98 99 99 99 98 99 96 98 98 98 96 96 96 97 95 96
81 87 94 89 88 85 97 98 96 95 97 99 92 94 100 100 98 80 99 99 99 98 98 98 98 98 97 97 95 95 97 94 98 99 99 99 98 98 97 98 99 99 98 99 99 97 98 96 96 96 96 96 96 96
70 94 97 96 89 98 97 98 94 96 96 96 95 100 99 98 91 94 100 100 98 98 96 96 96 98 93 89 94 95 96 98 98 97 97 98 98 98 99 99 98 98 98 99 97 98 97 98 96 96 97 96 97 96
87 90 90 94 91 92 98 98 95 92 99 99 97 99 99 92 96 98 100 99 98 97 97 96 93 94 94 96 96 96 96 96 97 95 96 97 99 97 98 98 97 97 96 98 98 98 98 98 98 97 97 97 96 97
94 94 92 98 96 92 95 99 98 98 96 97 98 94 92 93 94 98 90 97 98 97 99 100 98 98 97 96 95 95 97 96 93 96 96 95 96 98 99 99 99 97 98 98 97 98 98 98 98 97 97 96 95 96
96 98 86 64 76 77 93 91 81 91 95 96 96 94 92 99 100 98 97 97 98 98 97 98 98 98 99 99 97 96 96 95 96 96 94 93 93 94 96 99 98 97 96 97 97 97 97 98 97 97 98 98 97 95
92 84 93 96 92 85 96 97 98 100 100 90 85 99 99 96 100 98 99 98 100 97 98 98 98 98 98 99 99 97 97 97 97 96 94 88 91 94 95 96 96 96 97 98 98 97 97 97 97 97 97 98 98 97
97 91 86 98 94 96 99 100 100 94 92 92 98 100 100 96 99 99 98 98 98 96 99 100 100 100 98 98 97 96 97 98 94 98 100 100 98 95 95 96 96 96 97 97 96 98 96 97 97 97 96 97 98 97
97 96 96 99 98 100 100 99 100 100 99 99 95 90 94 98 98 98 98 98 98 100 100 100 100 100 100 100 100 100 98 100 100 98 99 100 100 98 98 98 98 97 96 97 97 97 97 98 98 97 97 98 98 98
94 96 96 97 100 99 98 100 100 97 98 99 99 100 100 100 99 100 100 100 100 100 100 100 100 100 99 100 100 100 100 98 100 100 100 100 100 100 100 100 99 99 99 97 97 98 98 98 99 98 97 98 99 98
98 100 96 100 100 99 100 100 100 100 100 100 100 100 100 99 100 100 100 99 100 100 100 100 100 100 100 100 100 100 100 100 100 100 100 100 100 100 100 100 100 100 100 100 100 100 100 100 100 100 100 100 100 100
97 99 100 100 100 100 100 98 100 100 100 100 100 100 100 97 98 97 99 100 98 99 100 100 100 100 100 100 100 100 100 100 100 100 100 100 100 100 100 100 100 100 100 100 100 100 100 100 100 100 100 100 100 100

GFSWCAN_sfc_rhum_117.txt.gz
RH
79 75 76 73 78 80 77 76 76 76 72 66 69 73 75 76 76 91 93 94 96 96 82 74 74 75 76 78 85 78 79 79 90 90 91 83 89 72 91 80 96 97 96 95 94 95 84 78 63 73 81 82 93 94
76 78 76 75 77 80 78 77 78 74 70 70 71 75 75 74 77 85 92 89 91 99 86 86 83 73 68 66 78 80 82 83 87 95 90 92 88 86 83 90 97 96 98 94 92 67 73 76 80 78 86 86 86 86
79 77 77 77 79 80 79 80 73 71 68 71 73 75 74 73 78 85 95 94 99 100 94 84 79 69 76 75 68 80 76 68 81 86 99 93 94 82 91 77 91 87 94 99 98 92 92 86 78 75 79 86 80 82
79 80 79 80 82 78 78 76 73 71 72 71 75 75 74 76 79 86 97 94 96 100 99 78 63 73 62 73 78 71 67 74 80 86 91 90 87 73 81 73 82 95 97 98 95 100 95 94 96 86 83 81 82 80
79 81 81 82 85 81 77 75 74 74 74 71 74 74 74 75 80 91 95 96 92 87 95 87 79 59 59 72 84 84 84 83 86 93 96 89 81 91 82 88 92 88 97 98 98 100 100 100 100 98 90 89 84 81
79 80 81 81 82 79 77 75 76 76 76 77 76 76 72 76 78 96 100 90 93 88 99 96 72 78 68 72 80 90 87 86 90 92 91 85 78 80 94 87 84 78 87 99 99 100 96 97 96 95 96 99 94 79
80 78 79 80 79 79 77 75 77 76 75 74 75 70 70 75 96 98 91 88 88 89 100 96 83 70 71 78 84 88 83 87 88 92 96 84 79 92 90 80 80 76 73 74 71 73 75 82 97 91 78 77 76 75
79 78 79 80 79 76 77 75 76 73 75 74 76 74 76 77 84 93 93 83 86 99 100 96 87 84 74 84 90 87 95 96 99 96 97 95 91 97 93 87 81 78 71 70 72 69 82 83 82 82 75 74 78 79
78 79 81 83 83 80 77 76 73 71 73 72 72 73 90 97 100 99 78 83 96 95 95 90 92 93 78 90 91 97 98 99 93 98 95 97 89 96 92 85 82 83 79 78 69 68 68 74 78 78 77 78 81 81
78 79 79 82 82 79 76 76 75 73 76 75 89 100 100 98 88 88 98 100 100 100 100 93 80 97 86 96 100 100 100 99 98 96 97 99 91 89 86 85 82 76 72 69 74 77 78 78 81 81 83 82 82 84
75 75 77 78 79 77 76 75 75 75 76 98 100 100 94 88 98 100 99 99 97 98 91 81 83 87 83 93 94 96 98 98 96 91 98 93 90 88 83 88 75 72 66 64 67 70 70 75 81 81 80 79 78 79
74 75 75 75 76 76 76 77 77 87 97 95 96 94 98 99 100 97 97 92 86 82 88 84 79 82 88 92 94 97 98 96 93 92 96 90 88 88 77 77 74 73 66 64 66 70 70 70 75 77 77 79 81 84
71 71 73 75 78 78 83 79 78 77 91 97 100 100 100 99 98 96 94 92 89 90 92 91 97 92 93 96 97 97 97 89 84 96 88 86 84 80 80 76 72 68 69 64 66 66 68 72 74 81 83 85 89 90
73 73 74 77 79 80 81 81 81 84 98 99 99 98 97 98 92 90 83 84 87 93 97 95 96 97 98 99 96 97 92 91 95 94 91 88 86 84 82 78 72 72 77 90 81 76 82 84 87 92 96 96 94 93
72 74 75 76 79 80 80 81 80 96 99 99 99 97 99 91 94 95 95 97 97 94 95 98 96 95 98 97 94 91 89 92 91 93 92 88 84 84 85 82 84 83 90 90 93 96 97 95 94 94 95 95 92 94
74 77 81 78 79 79 81 84 96 99 99 97 91 95 96 94 99 98 99 100 96 96 96 92 96 98 97 93 95 90 88 92 94 92 91 88 91 93 97 94 95 94 93 94 95 95 95 97 98 95 94 95 96 94
83 98 86 84 82 82 86 99 100 98 96 95 98 95 96 97 98 98 97 96 92 99 99 95 95 94 93 95 96 91 96 93 91 92 91 94 94 96 100 96 97 95 93 94 94 93 94 93 91 88 93 93 92 92
98 88 86 88 88 97 99 99 98 95 94 94 95 96 93 96 96 96 95 93 97 97 91 89 87 94 98 93 97 94 93 93 92 91 93 94 94 96 96 96 95 96 94 95 94 93 91 91 88 87 91 90 88 89
95 94 91 91 87 96 98 98 87 94 96 95 96 93 93 96 94 93 94 95 94 93 88 91 92 93 96 94 95 95 94 92 91 93 94 96 96 97 98 95 95 96 96 94 94 88 88 94 90 85 83 83 85 86
88 84 81 79 74 86 94 89 80 82 96 94 91 94 94 96 95 96 95 94 89 92 94 93 94 95 95 94 93 93 93 93 91 93 92 94 94 94 95 94 92 94 90 92 91 90 85 84 83 84 84 85 87 88
92 90 81 79 84 83 90 92 93 89 84 90 91 87 96 89 94 95 93 77 90 96 94 95 96 95 94 94 93 91 92 88 94 91 93 95 94 90 90 92 91 88 87 88 89 90 90 87 85 85 91 92 91 89
96 78 89 77 85 84 91 91 89 91 92 93 88 82 94 95 94 94 79 91 95 96 96 95 94 94 92 94 94 94 95 92 93 89 94 89 92 90 91 93 86 92 92 93 88 92 90 85 85 87 89 92 90 90
87 87 93 82 86 85 96 96 94 86 95 98 88 92 99 98 94 69 96 94 95 95 95 94 95 95 94 95 90 93 95 87 90 92 92 92 91 90 88 91 90 92 91 90 86 87 91 92 90 90 89 90 91 92
73 93 96 95 90 98 96 99 91 93 93 93 93 100 95 93 81 90 99 98 96 93 92 96 91 92 90 88 88 90 92 88 86 88 92 87 86 90 88 88 87 89 86 85 88 91 90 93 92 90 91 90 91 91
90 95 94 94 90 92 98 98 95 91 100 98 97 99 98 85 95 97 100 94 94 94 94 92 89 90 90 91 89 90 94 89 87 88 91 89 88 86 87 85 86 87 86 91 93 93 95 94 92 91 90 90 89 91
93 95 91 98 96 91 94 100 98 98 95 97 98 91 90 92 90 97 88 94 94 92 95 94 92 91 91 90 89 89 91 90 84 86 89 87 89 90 91 91 90 89 89 92 92 92 92 92 92 91 91 91 92 91
96 99 87 65 76 78 93 91 82 91 95 97 94 88 87 94 96 92 90 91 91 94 92 92 88 88 91 92 90 92 91 90 90 89 87 86 86 87 91 94 93 92 90 92 93 91 91 92 92 92 92 92 90 88
88 83 90 95 91 81 94 93 93 96 95 83 80 96 93 90 95 93 93 92 95 92 92 92 91 90 91 92 93 93 93 94 93 89 82 79 84 90 92 92 92 94 94 94 94 94 93 92 92 92 90 90 92 90
95 88 84 97 93 95 98 99 98 92 89 84 95 99 99 93 97 95 94 94 94 92 96 96 98 97 95 93 95 94 96 95 90 95 95 96 95 92 93 94 93 93 94 94 92 94 92 93 93 92 92 92 93 92
96 91 94 97 98 100 99 97 97 98 94 96 91 89 90 96 96 94 94 95 95 99 100 100 100 100 99 97 100 98 98 100 100 93 95 97 98 96 96 97 97 96 94 93 94 93 94 93 93 93 93 93 93 92
93 94 97 97 100 98 98 100 100 97 98 98 98 98 99 99 97 98 97 99 100 99 95 93 95 100 96 98 99 98 98 97 99 98 97 97 98 99 100 100 97 97 96 92 93 92 92 92 93 93 92 93 93 92
99 100 97 100 100 98 98 100 100 100 100 100 100 100 99 98 100 98 100 98 98 98 100 98 92 92 98 100 100 100 100 100 100 100 98 94 92 98 100 100 99 96 96 99 96 95 94 94 95 95 95 97 98 98
98 100 100 100 100 100 100 97 99 100 100 100 100 100 100 96 96 95 98 100 96 96 99 99 98 97 97 100 100 100 99 100 100 100 100 100 100 100 100 100 97 96 96 99 99 96 96 98 100 100 100 100 100 100

GFSWCAN_sfc_rhum_120.txt.gz
RH
86 86 83 82 82 84 85 82 81 81 83 73 72 74 74 74 79 65 57 69 66 79 53 58 54 54 51 54 62 53 58 62 63 77 71 56 67 57 82 76 96 95 95 92 84 92 82 49 45 75 69 68 81 92
81 84 82 82 83 83 82 80 83 84 80 76 75 74 75 74 79 69 64 63 71 87 61 65 61 54 50 45 54 52 59 62 68 84 74 79 75 74 79 82 81 94 98 94 92 77 73 71 81 66 65 82 89 91
79 83 81 79 80 81 81 79 80 80 79 76 73 74 75 74 76 74 70 75 97 100 81 62 54 48 50 57 50 61 45 46 53 64 94 75 77 58 82 71 88 83 87 100 98 96 91 98 94 95 80 86 79 78
81 81 82 80 80 82 81 79 81 76 74 73 76 75 76 74 77 76 81 76 93 91 92 51 44 53 41 48 56 57 50 54 59 60 78 76 73 49 61 66 72 95 93 93 98 94 92 91 98 98 97 97 96 69
78 83 81 80 80 83 82 82 78 74 73 74 72 76 75 74 80 82 80 93 87 75 84 66 49 41 43 45 52 56 61 63 58 79 87 79 54 63 60 60 84 79 97 94 95 100 100 100 100 100 99 97 89 71
73 81 82 80 81 84 82 79 79 76 73 74 73 74 74 76 80 89 100 86 85 84 86 78 42 52 50 50 54 59 60 62 65 77 74 63 51 73 82 68 74 69 95 96 91 74 97 83 70 77 77 81 75 68
73 79 81 80 82 82 80 77 76 77 77 77 78 77 78 80 79 80 77 90 78 84 100 85 59 44 54 60 59 60 63 70 69 77 78 62 58 83 81 67 76 67 81 69 60 63 68 70 86 68 68 66 65 63
72 76 79 80 78 80 80 78 77 77 75 75 75 76 78 79 77 76 66 87 83 96 90 90 75 62 57 64 73 58 74 80 78 71 73 77 78 85 83 76 67 64 66 75 58 61 66 62 62 66 61 58 60 64
73 80 80 80 80 78 78 77 77 75 73 75 74 77 77 82 97 75 76 84 86 95 89 86 85 82 56 68 77 92 93 98 72 94 79 86 69 86 85 71 68 65 62 59 51 54 53 61 63 64 66 66 69 69
77 82 80 80 82 82 78 77 75 75 75 72 81 98 100 97 77 83 93 99 100 100 100 86 53 78 57 80 89 97 100 98 97 78 79 96 83 80 74 74 65 57 51 50 57 60 61 63 65 66 68 68 70 69
78 80 79 80 81 84 80 77 77 77 78 93 100 96 78 81 91 94 96 96 92 96 83 64 56 68 54 77 76 73 98 94 94 85 92 87 88 83 72 71 60 53 48 48 50 53 53 61 64 65 66 66 68 71
72 76 78 80 83 83 79 79 82 91 94 82 87 88 97 99 100 95 91 90 82 62 64 81 71 64 66 70 80 93 94 99 94 80 98 76 83 73 65 62 62 56 49 48 50 52 54 56 60 63 63 66 72 76
77 78 78 79 80 80 78 79 86 78 80 88 99 100 100 98 97 90 89 84 82 70 72 80 91 76 78 83 95 98 99 85 65 91 72 76 74 66 59 56 53 49 56 48 49 49 52 57 61 70 74 78 84 84
79 78 77 77 78 78 78 83 86 86 94 100 100 99 95 97 81 72 64 65 66 75 78 78 85 86 90 98 95 99 86 81 87 84 78 75 72 64 61 59 50 53 66 83 68 60 69 74 78 83 89 90 89 89
78 77 77 78 78 80 80 84 84 78 91 99 100 93 97 83 87 89 88 84 85 76 78 90 88 87 100 100 92 90 94 86 76 84 84 76 70 65 65 66 68 72 81 81 84 88 88 89 88 87 88 88 87 89
75 78 72 79 81 80 82 84 90 99 100 99 97 98 94 95 99 100 100 99 87 82 83 81 99 99 99 91 96 88 80 76 88 82 76 66 77 79 82 81 83 86 86 86 86 87 85 89 90 88 86 87 88 88
76 65 78 80 78 79 82 98 100 100 98 99 92 91 94 98 99 97 97 96 85 94 100 92 100 92 88 89 88 81 91 86 80 78 75 85 86 87 89 87 89 88 86 87 85 85 85 84 84 80 83 84 83 83
70 78 81 80 77 93 100 100 97 94 89 85 91 93 88 91 94 95 92 90 96 97 88 89 76 94 93 84 88 87 82 83 80 78 79 86 89 89 90 88 88 88 87 88 87 86 81 82 73 70 77 77 74 75
84 84 80 81 86 96 98 97 83 85 86 84 86 85 86 91 89 87 88 89 90 90 87 86 92 90 90 83 87 87 85 79 78 83 86 90 91 91 90 89 89 87 87 86 83 73 72 83 78 70 67 68 71 74
85 84 83 86 71 84 87 88 66 79 89 86 81 87 86 90 90 92 92 87 82 91 93 92 89 88 85 86 82 81 81 82 78 82 83 83 82 82 87 83 78 84 74 80 76 80 66 65 65 68 71 73 77 78
95 93 89 86 94 87 79 88 78 71 78 80 83 81 90 80 87 91 92 77 88 88 86 85 88 90 86 86 84 80 84 74 82 74 76 78 82 74 75 76 75 71 69 72 75 75 74 74 70 70 81 84 83 82
99 88 86 73 83 73 73 66 69 70 74 82 80 70 88 91 91 90 71 88 86 87 85 84 84 83 83 86 88 85 87 82 82 74 76 72 76 74 74 76 68 77 76 80 73 81 78 69 73 76 81 84 77 79
82 76 81 85 78 75 86 84 80 72 82 87 74 80 86 86 80 54 87 78 83 83 84 84 87 85 84 86 83 86 85 74 71 74 73 74 71 73 71 74 74 80 78 75 68 73 80 80 79 81 80 78 81 82
64 87 91 90 77 93 86 84 67 71 75 77 78 86 78 78 61 73 85 81 84 77 79 87 77 80 77 77 74 78 81 74 72 75 76 67 68 75 69 71 71 73 71 68 74 79 78 83 81 79 80 81 81 81
88 91 84 91 79 84 89 88 85 75 87 81 83 86 86 69 82 79 80 80 80 83 82 79 76 74 76 81 77 80 85 73 71 72 79 74 71 68 68 67 70 72 73 82 84 84 85 83 82 82 79 80 78 80
90 90 82 85 87 80 81 88 86 86 83 87 84 80 76 79 79 85 70 81 84 79 88 88 86 83 80 74 75 75 80 76 70 75 77 72 76 78 80 79 78 78 75 83 84 83 82 81 82 75 82 80 82 79
89 90 74 55 62 67 83 79 69 78 85 87 84 85 83 87 87 78 74 71 72 81 78 75 69 71 76 79 78 79 77 75 77 74 72 70 72 73 81 86 85 83 78 83 85 83 82 82 81 79 81 83 82 81
80 75 84 86 81 71 85 83 83 86 85 73 76 87 84 78 82 78 77 81 83 78 79 79 77 72 74 78 80 81 83 82 82 77 72 72 74 81 84 84 84 85 85 86 87 86 85 84 83 82 79 80 83 80
84 76 70 87 82 84 88 86 85 79 76 70 84 84 86 79 86 82 84 82 80 79 82 85 91 88 86 84 88 86 88 89 84 81 75 85 85 85 85 87 85 85 86 82 84 83 83 84 84 84 80 84 85 85
88 74 82 84 87 90 91 86 89 90 77 78 70 71 74 84 88 83 83 85 85 90 92 91 92 89 90 88 92 91 91 91 92 88 86 86 89 89 90 90 90 89 87 83 82 81 82 83 84 85 85 85 85 85
79 79 83 82 88 88 89 92 89 84 86 84 83 84 85 87 88 87 85 89 91 92 90 90 90 89 89 90 89 89 93 91 89 87 87 88 89 90 91 92 91 90 88 84 81 81 83 83 82 80 78 80 82 80
86 83 86 89 90 88 90 89 88 86 88 82 90 90 92 88 89 88 91 89 89 88 95 80 78 82 84 86 88 89 95 87 86 88 83 84 85 89 91 89 90 87 86 87 87 86 83 82 84 83 84 80 83 83
90 87 84 88 92 93 92 88 83 89 89 87 91 91 88 83 85 88 90 91 87 82 84 84 86 88 88 87 86 88 91 89 95 99 94 95 98 99 92 90 88 87 85 88 89 87 84 83 86 84 86 86 86 86

GFSWCAN_sfc_rhum_123.txt.gz
RH
81 80 81 80 78 78 79 78 77 76 76 77 74 72 74 74 78 70 53 52 52 71 48 44 40 44 41 40 46 44 49 61 54 69 69 52 62 60 72 63 98 95 92 79 87 90 91 85 53 96 90 63 83 86
81 81 82 82 81 81 82 81 84 83 86 78 76 75 75 74 78 74 65 48 53 68 56 52 48 42 39 37 43 42 47 48 59 78 71 70 75 63 73 81 77 93 98 96 96 92 96 93 98 96 94 91 93 96
92 87 86 82 82 84 84 84 82 84 85 81 74 76 75 74 78 74 67 59 71 87 72 49 44 40 39 44 41 50 34 40 42 58 77 72 69 45 78 63 78 91 86 100 98 86 94 98 94 97 98 97 97 92
84 89 90 84 84 85 85 83 82 85 84 81 78 79 78 74 77 78 78 59 60 70 86 47 30 42 33 36 43 46 45 40 46 52 72 68 69 44 55 54 63 85 83 88 99 88 72 75 99 100 98 95 94 88
82 85 83 81 81 81 83 81 81 82 80 77 79 78 75 74 77 77 82 63 52 70 91 62 40 34 33 37 41 43 50 53 48 78 82 74 47 54 49 47 84 62 92 93 92 95 95 100 99 76 89 77 69 67
76 80 84 80 83 83 83 82 83 80 76 77 77 73 75 78 82 88 96 68 58 69 81 80 35 39 36 38 41 45 45 49 54 73 68 55 45 64 81 60 71 60 89 83 84 63 66 76 71 62 68 68 65 61
75 76 81 81 81 84 82 81 80 76 75 77 76 77 78 81 65 82 81 82 68 71 94 83 52 39 42 45 47 46 48 51 56 80 80 58 52 74 77 65 73 57 58 64 57 57 65 59 67 57 58 53 53 55
68 72 77 80 81 82 83 80 79 78 76 75 77 77 80 78 72 65 69 79 73 79 70 91 68 50 44 59 76 52 69 76 80 65 60 66 63 76 80 68 55 49 48 54 47 50 50 48 47 47 48 51 55 59
68 72 79 87 81 82 81 80 79 78 76 76 76 77 80 80 91 63 83 79 70 93 96 89 81 85 47 56 70 73 93 97 61 91 70 62 68 86 79 64 60 54 52 48 42 42 42 48 48 49 48 54 63 63
70 72 79 87 85 89 88 79 79 77 76 77 85 99 100 89 79 74 92 97 100 100 96 85 48 71 44 70 82 88 98 90 95 71 59 81 63 67 63 60 54 49 43 42 48 51 49 52 53 53 51 53 61 65
71 73 82 84 87 88 82 78 76 77 84 98 98 86 76 78 80 92 100 98 88 96 72 56 48 57 40 74 76 58 93 92 89 78 79 78 88 79 62 61 52 46 41 41 42 43 42 50 52 54 55 58 64 70
70 73 81 82 85 90 84 76 76 85 98 71 69 81 79 82 100 95 93 80 73 53 47 65 55 45 55 52 70 78 82 94 87 72 87 70 77 62 54 54 51 46 42 41 40 43 44 46 52 56 57 62 70 74
72 78 81 85 89 89 81 76 77 84 76 76 81 100 100 93 98 90 85 79 74 56 59 69 87 67 70 66 89 97 96 82 58 84 64 71 64 56 50 46 45 43 53 45 44 45 49 52 55 66 69 74 80 81
83 84 80 82 86 88 81 80 82 81 72 88 100 99 99 98 74 56 51 55 57 64 66 66 83 81 82 91 90 98 77 73 89 84 75 71 63 58 54 50 43 48 62 79 66 57 65 70 73 77 84 84 84 85
79 78 80 83 84 81 82 86 84 79 75 98 100 89 94 75 75 84 82 69 67 64 65 77 77 78 93 98 85 82 99 88 69 87 86 76 63 56 57 58 62 68 77 77 79 84 83 84 83 81 81 82 81 84
78 79 73 80 80 81 85 90 96 90 90 99 95 100 92 96 100 100 100 100 77 69 69 70 96 91 97 88 99 87 73 70 91 83 77 66 68 72 74 75 79 80 81 81 80 81 80 83 84 82 77 83 82 85
70 72 77 80 83 85 91 99 93 99 86 99 98 95 94 97 100 100 100 97 82 91 98 83 94 92 76 82 81 70 92 88 80 79 78 83 78 82 82 80 82 81 79 78 79 78 79 77 78 76 77 80 75 77
59 76 81 82 87 97 100 97 79 83 95 82 88 94 90 94 96 98 95 91 98 85 68 68 69 88 88 83 90 87 83 84 82 82 83 83 80 82 81 83 82 81 78 80 82 79 86 81 71 68 73 74 72 77
72 75 86 93 92 78 92 90 74 82 83 82 85 83 86 91 88 86 90 91 90 87 84 85 98 86 90 83 86 86 85 82 83 84 87 82 83 83 82 80 82 84 81 78 78 70 67 73 70 67 66 69 73 72
78 85 90 92 77 71 81 87 67 65 81 83 79 83 83 90 90 98 95 92 89 97 98 97 91 89 86 84 83 81 80 82 78 84 89 85 78 83 81 77 75 76 71 75 77 79 61 62 61 63 69 70 77 78
78 81 84 78 94 83 77 75 71 66 74 78 78 77 88 80 91 96 92 80 94 90 86 85 88 88 84 85 83 78 80 76 80 74 75 85 77 68 70 72 71 68 66 70 73 75 74 71 67 69 82 83 85 79
91 87 98 73 89 76 70 72 68 66 71 80 84 79 91 94 93 89 72 90 86 86 86 85 84 80 79 83 83 83 81 76 75 71 68 67 76 72 74 73 70 77 73 79 74 81 80 70 73 76 81 83 76 81
95 89 83 80 89 87 86 84 92 76 83 86 77 83 88 87 81 55 88 77 83 79 83 82 81 83 82 81 78 80 75 68 68 69 68 68 66 68 67 69 72 80 80 73 65 71 78 78 76 83 78 78 80 81
77 96 99 98 88 94 92 94 68 69 75 81 80 86 79 80 60 75 83 80 82 76 77 82 74 77 71 69 67 72 75 66 64 67 69 65 64 70 64 67 68 70 67 66 72 77 75 81 84 77 77 79 78 81
97 92 95 92 92 95 87 83 81 73 82 78 82 83 85 70 83 78 78 80 79 83 80 74 70 68 75 75 71 74 76 68 66 66 71 66 66 64 65 60 63 67 72 85 83 82 82 80 78 78 75 78 72 70
92 85 85 84 85 79 76 85 82 81 77 81 76 74 75 80 82 79 64 80 82 78 85 84 81 77 73 67 70 70 75 67 62 68 70 65 70 77 79 76 78 81 69 84 86 80 77 75 77 73 79 68 75 80
87 86 69 49 56 63 81 76 64 74 79 82 80 84 81 85 82 72 66 66 70 77 70 65 62 66 71 74 72 75 72 70 74 69 63 62 64 67 79 86 84 83 74 78 83 85 84 78 77 75 77 80 79 80
75 72 86 83 76 65 80 77 78 79 79 64 70 83 84 78 80 79 74 70 76 69 69 68 65 63 67 71 74 79 78 76 75 69 66 65 66 73 75 80 80 75 82 80 82 83 83 82 79 78 76 79 79 76
81 70 69 86 79 80 81 80 80 72 70 74 85 87 84 74 80 78 80 76 73 73 77 81 85 82 80 78 81 78 80 80 82 68 68 81 85 86 77 80 80 82 82 86 79 77 78 84 85 83 76 81 80 79
83 71 79 80 80 82 87 83 88 88 72 72 64 64 69 81 82 77 80 78 79 87 84 82 83 82 84 83 85 86 86 86 87 89 87 86 88 83 81 82 82 81 83 84 81 82 71 81 79 78 79 79 82 81
69 75 78 76 83 86 87 86 84 80 78 79 76 79 80 85 85 78 77 80 83 85 85 86 86 82 83 83 81 83 88 88 84 82 82 82 81 80 81 83 82 82 78 78 78 76 74 73 73 70 66 70 70 73
79 75 81 84 87 86 82 84 81 81 84 83 86 82 86 84 84 86 84 84 84 84 93 81 83 86 83 83 84 87 81 80 79 79 77 80 80 81 80 78 79 78 77 75 75 75 72 72 74 73 72 64 74 75
82 79 78 81 87 87 85 82 72 83 79 79 82 77 79 77 82 86 82 81 83 80 79 79 81 81 79 77 76 83 77 82 90 90 86 87 91 93 87 81 79 77 74 76 76 75 69 65 73 74 74 77 75 77

GFSWCAN_sfc_rhum_126.txt.gz
RH
80 81 81 81 79 79 78 74 74 76 79 78 73 72 73 72 72 67 57 53 56 67 48 36 35 42 36 37 43 46 50 56 57 69 70 57 66 59 68 58 93 92 90 77 81 84 90 94 65 94 99 96 96 95
82 81 82 81 79 78 79 78 76 77 80 80 75 73 74 72 73 70 64 51 53 60 56 50 44 39 37 37 45 42 44 41 55 73 77 71 71 62 58 76 77 87 97 98 98 94 100 99 99 99 99 98 98 99
82 82 83 82 81 81 81 81 80 77 79 74 78 74 74 73 74 74 67 60 56 78 71 50 46 38 37 39 39 53 43 40 56 49 69 70 67 43 71 66 70 75 93 94 95 84 78 100 96 98 99 100 97 96
86 85 83 84 82 83 83 83 83 86 86 84 77 80 77 74 74 73 78 58 63 65 87 53 29 38 31 35 40 44 46 46 43 43 64 70 67 42 55 50 59 87 90 85 93 88 71 70 99 97 97 92 77 64
87 87 85 80 80 86 85 84 81 84 85 82 75 76 76 73 75 70 83 72 59 76 93 67 42 32 31 36 37 39 46 50 51 66 84 73 44 50 47 49 95 60 83 92 94 100 98 95 97 71 72 66 63 60
81 90 93 92 87 84 84 85 86 86 86 83 79 75 76 78 80 93 99 57 51 52 87 80 43 40 34 33 38 42 42 48 53 63 67 49 44 60 82 64 74 59 72 78 88 65 91 66 56 51 58 63 66 57
80 87 88 89 84 83 84 84 84 85 81 78 80 80 80 81 82 95 84 76 63 66 97 81 58 37 34 39 42 42 45 47 52 74 71 54 50 63 77 68 92 50 49 60 47 50 60 50 56 47 49 51 53 53
75 79 87 89 82 82 83 85 84 81 79 80 79 81 81 80 80 81 70 71 65 72 65 87 69 51 40 51 74 55 66 67 74 63 63 64 58 79 82 73 50 47 44 46 43 42 44 44 44 45 43 49 56 60
73 78 82 82 82 81 83 83 81 78 78 78 78 77 75 73 88 76 80 77 68 84 94 90 80 83 46 56 84 91 74 95 62 88 69 61 69 89 84 62 55 52 50 47 41 41 40 46 47 47 47 52 62 66
71 74 81 86 85 83 82 82 80 78 77 75 83 99 100 84 82 77 78 90 96 93 81 86 54 74 44 71 93 87 94 87 95 76 58 81 68 64 59 55 51 47 42 41 47 51 48 52 51 51 51 54 61 69
66 68 78 82 85 84 82 80 79 79 81 99 99 89 73 78 65 77 97 95 86 88 70 57 51 56 38 72 79 70 95 90 87 76 82 78 91 81 57 56 49 43 40 39 40 42 41 47 52 55 56 60 65 72
65 67 69 81 88 84 80 79 78 76 98 76 71 71 74 69 91 94 88 75 72 58 48 65 54 46 56 50 69 80 78 90 79 80 94 76 77 58 52 52 48 46 42 40 41 44 47 48 54 60 61 66 71 76
68 69 72 84 90 91 89 78 76 80 79 71 69 95 91 88 91 82 80 75 71 54 62 67 83 65 68 61 90 98 87 82 61 85 68 72 63 53 49 46 44 48 58 51 49 49 55 58 59 69 72 74 81 81
72 75 77 85 92 92 84 78 81 84 93 96 100 96 97 92 73 58 54 56 66 68 69 70 82 79 83 89 92 83 76 76 78 79 78 72 62 58 53 50 44 57 70 82 71 64 70 74 76 82 90 88 88 87
74 77 81 85 91 91 80 79 80 83 94 96 94 90 86 75 73 85 83 72 67 67 68 80 82 86 95 96 80 77 93 82 70 88 93 76 63 58 60 63 66 71 83 83 81 90 91 91 89 87 86 89 82 92
78 84 92 91 94 88 82 78 80 97 94 90 90 94 91 96 100 100 100 100 81 77 77 74 92 90 92 83 90 80 71 72 95 90 81 69 70 74 75 74 82 84 83 84 88 84 84 91 89 86 93 92 89 89
91 96 91 90 95 88 90 100 100 100 89 97 90 96 98 100 99 100 100 97 82 96 98 80 94 79 71 77 77 72 93 94 85 90 84 85 87 87 80 82 87 82 82 85 84 84 84 85 85 87 82 85 81 86
74 86 91 89 92 96 100 100 98 87 86 76 83 98 87 89 97 98 96 94 98 92 72 71 72 74 80 76 96 91 90 91 90 90 86 87 88 86 83 80 86 79 80 85 87 87 90 82 75 72 78 78 76 79
80 80 84 91 86 93 99 100 80 71 76 81 86 80 81 90 86 86 90 90 91 98 96 94 95 81 96 88 91 91 90 86 86 92 86 87 83 80 80 81 83 91 81 76 74 68 68 83 77 69 68 68 76 85
84 88 88 80 81 97 93 83 60 62 78 82 80 82 82 90 87 91 92 90 89 98 99 98 94 94 92 90 89 89 85 79 77 87 91 89 79 85 81 74 73 74 69 74 84 78 64 69 67 70 74 81 82 85
92 94 92 90 79 64 68 71 65 70 74 82 79 79 90 80 88 92 88 87 96 94 88 87 91 93 90 90 87 76 83 80 85 83 84 93 77 65 72 72 71 69 72 74 79 80 81 77 76 74 86 86 86 87
94 92 99 75 78 76 73 67 68 66 73 80 82 79 90 94 94 91 77 93 89 88 92 92 86 82 82 86 88 82 82 76 75 74 70 69 77 75 76 74 72 81 78 79 76 85 83 73 74 84 82 85 80 75
78 70 69 72 86 81 90 74 84 73 82 86 79 85 89 89 83 63 92 81 86 81 88 84 90 87 83 85 80 78 76 76 74 74 70 70 69 71 71 74 72 80 84 76 70 76 84 82 79 84 84 83 86 88
75 96 99 92 80 92 79 89 80 74 77 81 82 86 82 85 66 77 90 88 88 76 78 82 75 82 78 81 81 80 78 65 66 68 73 78 71 69 65 68 72 71 69 73 74 81 80 87 88 84 81 84 80 85
94 94 96 92 84 86 86 84 82 78 86 82 80 84 87 72 86 85 82 86 80 87 81 81 82 79 89 80 74 74 77 77 78 71 72 71 76 73 70 61 63 66 70 84 86 87 81 82 86 79 80 84 84 84
94 90 89 84 85 80 80 90 84 82 78 82 83 77 76 82 84 82 74 83 86 81 83 82 81 76 82 79 78 78 75 66 64 73 70 66 71 79 85 83 89 88 72 85 88 87 90 75 79 75 87 86 77 83
92 92 72 53 65 66 86 78 66 77 82 82 84 86 84 87 83 82 72 70 76 79 70 68 70 73 72 74 72 74 73 71 77 70 64 65 67 70 81 87 86 82 75 82 84 88 89 86 83 78 82 82 83 82
85 74 89 78 74 66 82 78 79 80 75 62 71 84 82 84 88 81 80 81 74 67 68 71 73 70 74 77 77 78 78 76 74 70 67 68 69 75 78 81 81 81 82 87 78 85 85 89 86 87 82 84 85 81
79 75 73 89 80 78 77 78 78 73 67 77 86 82 85 80 89 82 78 73 72 74 79 80 85 82 80 77 80 78 82 82 88 84 72 90 94 89 79 81 82 82 82 85 89 79 77 85 85 86 81 85 82 83
82 69 79 79 81 84 86 84 86 83 75 78 75 73 77 82 84 79 77 80 83 91 89 85 85 86 86 86 88 87 86 87 88 91 92 92 90 83 81 82 81 81 82 82 82 81 81 79 88 89 81 86 89 88
72 75 78 76 84 87 86 87 88 87 88 85 77 80 80 84 82 80 89 86 84 82 85 86 84 82 81 83 86 86 92 89 84 83 83 81 78 80 82 81 80 80 82 79 81 80 79 81 79 79 79 78 80 82
84 77 81 85 88 87 90 92 91 85 84 83 84 81 86 87 86 85 81 83 86 86 92 83 85 89 85 86 88 87 84 83 81 81 78 82 83 81 79 76 80 79 78 82 78 79 79 79 81 81 85 82 83 83
84 81 79 81 88 89 83 84 74 82 80 82 82 80 82 77 84 90 80 82 87 83 81 89 86 82 78 76 80 85 79 85 89 92 92 93 94 95 89 84 87 78 76 78 77 78 79 76 80 82 81 85 85 84

GFSWCAN_sfc_rhum_129.txt.gz
RH
83 84 84 83 81 80 78 75 74 78 81 79 74 73 75 75 73 85 87 79 89 94 71 52 45 58 58 69 83 68 77 78 88 90 95 87 89 84 85 76 97 98 100 98 95 93 95 95 69 91 98 98 99 99
83 83 84 84 82 81 78 76 81 82 82 79 76 74 76 75 74 77 85 75 70 86 83 63 63 62 60 59 70 68 66 63 94 95 96 96 94 90 80 94 86 94 99 99 99 98 100 100 100 100 100 100 100 99
82 83 84 83 82 80 78 78 80 82 82 81 79 75 75 75 76 82 93 79 79 96 92 77 67 55 48 49 51 78 80 64 67 69 95 94 91 75 92 89 82 94 97 98 95 96 88 100 98 99 99 100 92 71
84 84 84 83 82 82 81 81 82 83 82 82 81 81 79 75 76 75 94 86 84 86 97 74 45 56 49 51 55 60 62 59 66 69 88 94 94 65 78 71 79 95 92 89 94 92 78 95 100 98 86 72 72 62
87 84 84 83 84 83 83 82 80 83 83 78 79 79 77 74 77 83 96 93 85 86 97 91 62 48 42 47 52 57 63 68 78 90 95 94 76 74 76 70 98 80 92 98 99 100 100 100 94 75 69 72 70 64
90 89 85 84 84 84 83 83 83 86 87 84 78 77 77 81 84 95 99 84 63 78 96 97 66 57 50 55 56 56 64 73 78 86 91 80 59 76 98 93 71 73 77 85 92 70 99 85 61 52 60 66 65 65
87 88 90 84 84 84 86 82 81 87 87 84 82 80 82 84 94 98 97 88 72 80 95 96 88 64 47 51 61 67 61 71 79 90 94 84 76 74 96 90 88 55 68 76 61 52 66 54 64 52 55 59 60 59
83 87 91 89 82 87 86 86 86 87 84 82 82 82 83 83 84 93 89 77 79 85 90 92 90 78 54 74 88 75 87 88 91 88 86 88 81 94 98 82 56 52 48 50 49 47 52 52 50 51 52 59 66 67
84 85 89 92 90 88 85 85 84 83 82 81 79 77 88 89 97 96 77 75 90 90 94 97 97 97 62 86 98 99 92 99 87 98 93 82 93 97 94 77 63 58 56 53 50 47 49 56 55 54 57 65 74 77
83 86 90 92 81 82 83 84 82 80 78 76 90 100 99 97 81 84 88 93 97 97 90 92 83 94 74 95 100 99 92 88 99 93 84 95 98 75 68 63 60 54 47 49 59 58 59 62 63 62 62 68 73 77
73 82 87 89 86 82 82 82 78 78 78 98 100 99 93 79 86 94 94 90 94 92 94 89 79 91 70 90 96 93 98 97 99 95 95 97 98 85 63 60 53 51 48 48 50 53 53 62 66 68 68 70 75 77
67 73 80 84 88 86 81 78 77 86 96 88 87 85 91 94 94 89 91 93 94 81 83 92 82 75 80 77 92 93 92 93 89 96 100 97 92 69 58 56 61 64 57 53 54 59 61 58 66 70 72 74 76 79
70 67 73 82 86 82 80 78 71 76 83 88 84 95 95 91 97 98 98 94 95 79 84 88 92 91 90 85 98 95 84 91 84 98 94 92 79 59 56 58 66 71 74 69 64 66 68 67 69 77 76 79 91 91
72 73 73 82 85 88 79 77 77 85 92 96 94 98 92 99 94 87 85 80 85 92 92 91 96 94 96 94 96 90 82 95 96 94 95 90 72 67 70 70 72 80 81 90 77 76 80 78 87 92 95 96 96 97
72 73 73 80 83 90 82 76 80 93 98 97 96 95 99 92 95 99 98 91 85 90 91 94 94 96 96 94 96 84 95 87 93 99 99 89 80 78 84 83 88 87 93 96 94 95 97 94 96 95 94 95 93 97
69 78 78 84 91 91 82 80 93 99 100 96 93 92 94 97 95 98 96 98 98 99 96 90 94 94 95 83 93 91 93 95 99 98 94 83 90 90 90 92 92 93 93 97 98 94 96 94 94 95 96 97 93 97
76 85 74 90 94 91 88 99 99 99 98 97 98 98 98 99 99 99 99 99 97 99 99 99 98 88 91 95 94 98 100 99 97 97 96 94 94 96 92 94 96 95 97 94 90 92 96 97 93 92 94 94 94 97
88 86 82 93 95 96 100 100 98 97 98 95 95 95 98 99 99 99 98 95 94 100 97 98 100 92 91 94 99 99 98 98 96 96 97 97 95 94 92 95 94 90 94 94 93 92 91 91 93 96 92 91 92 93
88 90 92 96 91 96 99 100 93 94 93 97 96 96 95 98 96 94 94 96 98 99 99 100 100 97 99 99 98 99 99 98 97 98 98 96 93 92 88 93 97 96 92 90 92 94 95 95 95 96 95 96 98 98
92 97 96 86 84 92 96 99 92 87 95 96 94 94 94 97 97 97 98 97 99 99 99 99 99 99 99 99 99 98 99 97 96 98 98 98 97 95 91 92 94 91 94 93 96 90 95 96 96 96 98 97 98 98
89 88 86 88 96 85 91 94 96 94 94 94 94 95 90 97 98 99 99 97 99 99 99 99 98 98 97 98 98 96 95 91 98 97 97 98 96 95 96 95 96 94 95 98 98 98 97 97 96 98 98 97 97 96
97 94 99 90 98 86 85 85 92 89 93 96 96 94 98 99 99 99 95 99 99 99 99 98 96 96 97 97 97 95 96 92 93 93 92 91 97 96 96 97 97 98 97 97 98 98 97 97 97 97 97 96 94 93
93 96 91 86 91 85 93 88 92 90 95 97 94 94 96 97 98 90 98 98 98 97 98 97 98 94 95 96 93 91 92 94 96 96 95 96 96 94 96 96 96 97 98 96 95 97 98 93 95 97 97 96 97 98
82 97 95 96 89 98 94 96 90 94 94 93 95 95 96 98 87 95 98 98 99 98 96 96 94 96 95 93 96 98 98 94 91 93 94 97 95 95 94 96 96 96 96 97 97 97 96 97 94 96 96 97 96 96
88 97 92 100 92 95 96 96 95 92 95 92 96 98 98 94 98 98 96 99 97 98 96 96 95 93 93 97 96 97 91 97 90 92 96 96 96 98 95 88 90 95 95 97 98 97 96 96 96 93 94 96 92 96
94 98 95 91 95 92 91 96 94 94 96 94 93 97 94 97 98 97 98 97 98 97 97 97 97 98 97 90 94 96 96 96 91 92 96 93 95 98 98 96 97 98 95 98 99 99 96 95 92 88 97 93 90 95
98 97 91 65 81 89 96 94 89 95 95 94 98 96 97 99 95 99 98 97 97 97 96 96 96 88 93 95 96 96 95 92 94 93 91 91 93 95 98 100 100 97 96 98 97 98 99 96 97 94 97 97 96 97
96 91 94 92 93 90 95 94 93 94 93 90 89 97 97 96 98 98 99 94 88 88 92 94 92 92 94 96 97 95 96 94 92 92 92 94 95 97 96 97 97 92 96 98 96 96 98 98 99 97 98 97 95 96
96 95 91 97 92 91 91 93 95 94 91 95 97 98 99 98 98 98 95 92 93 89 94 96 98 96 96 96 96 97 97 98 98 98 97 96 99 99 98 98 98 97 97 98 96 92 89 95 96 96 95 95 97 96
97 88 93 91 95 96 98 97 98 96 96 96 90 84 90 98 97 96 96 96 96 96 96 95 97 96 98 98 100 100 99 98 100 100 98 100 99 99 98 98 98 98 98 98 97 97 90 95 96 97 96 95 96 99
91 93 91 91 96 98 97 96 96 95 97 94 95 95 94 98 97 95 98 97 95 94 95 99 98 97 97 96 98 100 100 100 97 96 97 98 99 99 98 97 97 98 98 97 98 96 95 96 96 95 96 96 97 98
96 96 95 96 97 96 95 97 97 96 97 97 98 96 98 98 100 97 95 96 97 98 96 95 96 100 98 98 99 97 94 96 100 100 100 100 100 100 100 99 98 97 96 96 96 96 94 98 99 99 99 99 100 100
96 96 93 95 96 96 95 97 97 97 97 97 98 94 95 94 98 98 97 96 95 95 97 96 94 95 95 96 97 98 99 100 100 100 100 100 100 100 100 100 100 100 99 98 99 98 97 96 98 99 98 98 99 98